GFSNE_850_spd_000.txt.gz
Wind_Speed
28 28 28 29 31 35 37 34 31 37 41 37 33 30 30 35 37 34 36 36 35 34 37 37 38 37 39 38 38 38 38 38 39 40 42 41 40 41
29 30 31 34 36 37 36 31 29 32 41 41 37 35 37 40 41 38 37 33 33 39 38 40 43 42 39 41 41 41 41 43 43 43 42 43 43 40
30 32 34 36 39 37 30 25 25 27 35 47 43 44 42 43 45 40 37 37 33 43 44 46 42 41 41 42 44 44 42 41 42 41 41 41 41 43
31 32 34 37 38 32 26 25 28 30 32 35 44 46 46 44 36 39 45 46 41 41 38 36 39 40 42 41 40 38 37 36 37 37 37 37 37 36
31 33 36 37 35 28 26 28 28 27 31 34 43 44 49 38 37 46 44 44 43 38 35 35 35 34 34 35 32 36 38 36 37 37 38 38 39 38
31 34 34 33 30 28 27 27 32 38 38 39 38 42 34 42 40 41 46 42 46 41 37 33 36 37 36 40 40 38 36 35 35 34 34 35 36 37
33 33 32 30 28 25 26 32 34 37 38 34 43 37 32 42 38 41 42 45 42 29 46 45 34 41 45 40 38 35 33 33 33 34 35 36 35 34
31 29 30 31 29 27 29 30 30 36 40 40 32 41 40 39 42 42 41 30 51 42 33 47 40 44 42 41 38 35 36 37 38 38 38 38 38 36
30 31 30 29 28 33 33 33 36 36 30 33 36 37 39 41 39 41 44 41 41 46 44 43 41 41 43 42 36 35 35 35 36 38 38 38 39 39
25 26 29 31 34 31 35 38 35 33 41 36 33 36 38 40 42 39 40 42 40 41 36 38 41 43 41 41 38 35 33 33 34 33 34 33 33 36
25 26 29 34 32 31 36 32 38 42 37 30 30 34 37 32 31 33 37 37 38 38 36 37 41 43 43 44 37 24 26 31 34 36 37 37 34 32
31 32 34 32 32 30 32 38 42 36 35 36 41 36 30 31 28 28 32 35 37 39 36 34 40 39 31 33 22 40 40 38 32 35 36 36 35 34
33 35 39 33 26 35 32 32 29 33 34 35 31 34 35 34 31 29 29 30 36 38 34 32 37 37 30 37 43 43 43 35 35 32 23 23 25 29
31 36 31 29 32 31 27 25 27 29 28 32 33 34 35 35 34 31 29 27 26 30 30 29 33 35 35 37 39 42 36 31 31 23 29 24 20 20
31 29 32 30 29 28 26 25 27 30 30 33 34 34 34 34 34 34 31 28 28 28 27 27 27 28 29 34 38 36 34 36 17 32 23 20 17 13
31 34 35 29 27 27 28 30 31 29 28 31 32 33 34 34 34 32 33 31 33 32 28 24 22 24 27 23 22 27 28 26 27 19 15 11 4 4
30 32 29 31 32 31 31 32 33 31 32 31 31 34 34 34 34 31 31 30 31 33 32 26 21 21 15 15 19 24 28 21 19 16 15 19 17 4
26 26 29 31 31 32 33 36 34 32 31 30 31 33 34 34 34 33 30 29 30 31 28 25 24 23 18 18 23 31 21 20 22 23 24 27 34 21
24 26 28 30 31 32 34 34 35 33 30 29 31 33 33 33 33 32 31 29 28 28 23 23 22 22 22 20 27 27 25 25 28 31 31 32 32 43
24 26 29 30 30 32 34 34 33 32 29 30 31 32 33 33 32 30 29 27 26 24 23 22 19 19 15 14 16 30 29 27 30 33 34 36 39 43
28 28 28 29 30 32 33 32 31 30 30 29 30 33 32 31 29 27 26 23 20 19 21 20 17 11 11 18 23 29 29 28 26 28 29 33 38 43
27 28 28 29 31 32 31 30 30 29 28 28 30 33 32 29 27 25 23 20 18 16 15 14 12 12 16 19 22 26 26 29 32 34 38 38 32 30
28 28 28 30 32 31 29 30 29 28 26 27 32 33 29 27 23 22 18 15 15 14 12 11 12 13 15 17 19 22 25 25 28 31 33 29 33 37

GFSNE_850_spd_003.txt.gz
Wind_Speed
24 26 27 28 29 31 32 32 29 32 43 30 24 31 28 32 34 31 36 35 33 33 34 36 39 40 42 45 46 46 44 42 40 41 41 41 41 41
27 28 29 31 32 34 34 31 26 28 38 43 40 37 36 34 41 36 37 34 31 31 36 39 44 46 46 47 47 45 43 43 43 43 42 42 44 46
28 29 31 32 34 35 34 30 27 26 35 48 44 44 49 43 41 39 35 32 37 38 40 45 43 38 38 39 40 40 41 41 44 45 47 44 44 44
30 30 32 33 34 34 34 30 28 28 29 37 48 49 44 43 47 43 32 45 39 38 39 37 35 35 35 34 35 37 36 39 40 40 37 38 40 39
30 32 32 32 33 34 33 32 30 28 33 39 44 45 41 45 45 33 48 46 39 38 37 32 30 31 34 38 39 39 37 38 38 37 36 38 39 40
31 30 30 28 30 31 33 32 31 37 39 41 41 38 46 39 37 39 46 40 42 42 35 30 39 39 35 35 36 39 40 39 38 38 38 38 40 41
31 30 29 29 28 26 28 32 35 37 39 36 41 36 37 38 41 42 41 44 40 40 43 42 37 39 42 37 36 34 34 34 35 36 37 37 38 40
31 30 27 26 25 25 29 29 29 34 38 41 32 39 46 40 41 41 40 43 45 40 34 45 43 45 44 41 37 33 34 36 37 37 38 39 40 38
27 26 24 26 27 33 30 33 32 24 25 33 40 39 40 41 40 43 43 41 43 47 41 43 44 44 42 41 37 36 36 36 36 37 37 37 38 40
25 23 26 28 32 30 35 32 36 43 45 35 31 36 38 40 41 39 40 42 43 43 34 39 43 44 44 43 40 36 33 31 32 33 34 36 37 38
26 27 29 29 32 30 32 39 41 43 32 33 30 35 38 32 29 32 36 38 40 39 38 36 42 43 44 45 40 32 30 33 35 36 37 39 38 38
31 32 33 29 29 28 35 36 39 32 37 37 41 33 28 29 28 28 32 36 38 42 33 35 41 37 34 36 32 42 41 41 34 33 33 34 35 39
34 34 36 30 31 33 30 31 28 32 36 35 31 32 33 33 31 30 30 32 37 40 38 33 38 38 33 39 42 43 39 38 35 34 30 26 25 29
31 34 34 32 33 30 26 24 26 28 29 30 32 34 34 35 33 32 30 30 29 32 32 27 34 36 39 39 43 44 38 35 32 22 29 27 25 23
30 32 35 32 30 27 23 24 25 29 29 30 32 32 34 34 34 35 33 31 31 29 28 27 27 29 30 36 40 39 39 39 19 32 27 26 23 19
33 33 34 28 25 24 25 27 29 28 26 29 31 31 33 35 35 34 35 34 35 33 30 28 24 24 27 27 29 32 30 27 29 21 20 17 16 9
29 31 28 28 29 27 29 31 31 30 30 29 30 32 34 36 36 33 33 33 32 34 35 31 24 22 20 18 23 29 31 28 25 24 22 22 27 15
25 26 27 28 28 29 32 34 33 31 30 29 29 31 35 36 35 33 31 32 31 32 33 28 27 28 26 20 26 33 35 32 25 25 29 29 30 28
23 25 27 28 28 30 33 34 34 32 31 29 29 32 34 33 33 33 33 32 31 31 27 24 25 26 29 25 27 30 37 36 30 28 32 33 32 29
24 26 28 28 29 32 33 33 32 31 29 28 29 32 33 32 32 32 31 29 29 27 25 22 24 22 22 18 18 28 34 37 39 39 32 34 36 34
26 27 26 27 30 32 32 31 32 32 30 28 30 33 32 31 31 29 29 26 23 24 23 22 21 16 13 14 18 23 27 29 34 37 40 33 37 47
26 27 25 27 31 32 31 31 31 29 27 28 32 34 31 29 29 28 26 25 22 21 19 16 16 16 13 16 18 18 23 26 31 34 38 44 41 34
26 25 26 28 32 32 31 30 29 28 28 31 33 31 30 27 24 24 22 21 20 18 16 15 15 14 13 13 15 19 21 24 30 34 37 36 40 42

GFSNE_850_spd_006.txt.gz
Wind_Speed
23 24 26 26 27 28 29 29 29 32 45 31 22 41 39 37 34 32 33 31 32 35 37 36 35 37 41 43 45 46 46 46 47 47 48 47 47 46
26 28 28 29 29 29 30 29 27 30 37 44 45 42 40 44 39 34 35 35 35 32 29 33 41 46 47 48 47 42 41 42 42 43 43 45 44 44
28 30 31 30 30 29 29 29 29 29 36 51 45 45 49 43 41 40 41 36 35 30 37 43 44 42 42 42 41 40 39 39 39 39 40 41 42 42
30 31 32 31 30 29 27 29 30 29 32 41 46 49 45 45 44 45 43 37 43 41 37 39 40 41 38 36 36 37 37 38 40 40 39 39 38 41
31 32 32 32 31 29 28 29 29 30 31 36 45 46 46 41 44 39 44 41 38 36 37 36 36 35 35 36 40 40 40 39 39 40 40 38 38 38
30 31 30 28 26 24 26 26 29 34 35 38 42 43 37 34 41 41 43 39 41 38 42 40 35 35 35 36 36 37 38 38 38 39 41 41 41 41
30 28 26 23 21 21 24 30 32 32 38 37 31 35 43 41 40 43 42 44 44 40 42 42 38 40 44 39 36 35 34 33 34 36 36 37 38 38
29 26 24 24 26 26 30 25 28 29 29 40 40 40 40 42 44 42 41 45 48 38 35 50 43 44 43 41 37 32 34 36 36 37 37 38 38 39
26 27 26 27 29 31 28 34 23 34 34 35 38 37 41 41 41 47 45 44 44 46 41 47 44 47 44 42 38 35 35 35 36 37 37 37 38 38
26 26 28 32 29 30 33 34 39 42 40 31 31 35 36 40 38 38 39 42 45 44 33 40 45 45 45 45 43 36 33 33 33 33 33 34 35 36
26 28 32 28 32 30 32 38 40 42 31 32 30 36 36 31 28 31 36 39 42 43 42 36 40 43 47 46 34 31 31 33 33 33 34 35 36 38
28 32 31 29 30 28 33 36 39 34 36 37 40 34 29 27 29 28 32 36 38 43 39 38 43 39 33 37 35 43 40 35 30 31 32 33 34 37
32 33 34 32 29 31 28 30 28 31 35 36 33 33 32 32 32 32 31 31 36 40 38 34 38 39 31 41 46 43 36 39 37 32 24 22 24 29
31 33 34 31 31 28 26 24 25 27 30 30 32 34 33 34 35 34 32 30 30 33 31 27 33 34 38 43 43 44 41 35 32 25 30 27 25 25
30 31 34 32 31 28 24 23 25 28 28 30 33 32 32 35 37 35 32 31 32 30 27 27 28 30 32 38 41 40 39 37 21 31 27 26 22 19
32 34 33 29 25 24 24 26 27 28 25 29 31 31 33 37 36 33 35 35 36 35 29 27 26 27 30 26 27 33 37 31 37 29 27 26 19 19
28 30 29 28 28 27 28 30 30 29 29 29 30 31 34 36 35 33 33 34 33 35 37 32 28 27 26 19 25 32 37 40 40 35 29 32 26 22
25 27 27 27 28 29 32 33 31 30 30 30 29 31 35 36 35 34 32 32 32 33 35 31 32 33 31 28 24 31 37 41 44 40 30 34 32 30
24 25 26 27 28 30 33 33 33 31 31 29 29 32 35 33 33 33 32 32 31 32 32 27 29 30 32 32 22 26 33 39 43 45 37 34 32 29
24 25 27 26 27 32 34 34 33 32 30 29 31 33 33 32 32 31 30 30 30 30 30 25 25 26 26 25 22 29 26 32 39 41 45 38 34 31
25 26 25 26 28 33 34 33 31 31 30 31 33 33 32 31 29 29 28 26 26 28 27 25 22 21 20 19 25 28 25 26 29 37 46 36 38 38
26 26 25 25 29 32 33 31 30 30 31 32 32 31 29 27 27 28 26 28 26 24 22 20 20 20 20 20 23 26 28 25 27 29 35 41 37 28
25 25 25 26 30 32 31 29 29 30 31 31 30 28 27 26 24 25 26 27 21 18 20 20 20 19 18 19 20 23 25 27 29 30 30 34 36 36

GFSNE_850_spd_009.txt.gz
Wind_Speed
20 21 23 24 25 26 26 28 27 31 40 23 12 30 28 27 27 28 27 28 31 31 33 36 38 37 37 36 41 45 47 47 47 47 48 48 48 49
22 23 25 26 27 27 27 27 28 28 36 37 38 33 30 29 29 29 30 35 35 33 34 35 37 40 44 47 47 46 45 45 44 43 43 43 43 43
24 26 27 28 29 29 28 27 29 29 36 50 38 38 32 32 33 31 30 32 32 37 39 42 40 40 40 42 43 43 43 42 41 41 41 40 40 39
26 28 29 29 29 27 26 26 27 27 30 41 40 39 38 35 33 33 33 35 38 35 35 35 37 39 39 40 41 41 40 39 40 41 41 40 41 41
27 29 29 28 27 25 23 24 24 26 27 33 42 43 38 32 35 41 35 36 33 32 34 34 34 35 37 37 38 39 39 39 40 40 40 40 39 39
28 28 26 25 24 23 23 23 23 28 30 34 35 31 40 43 36 38 39 37 37 35 39 35 34 35 36 37 38 37 37 38 37 37 38 39 39 41
28 26 24 24 22 20 22 26 28 27 34 27 36 38 38 38 36 37 39 41 43 35 39 32 38 41 41 37 36 35 34 34 34 35 35 36 37 38
27 25 25 24 24 24 24 22 22 30 29 34 37 36 35 33 37 37 40 42 46 32 30 47 42 43 40 39 35 34 35 36 37 37 37 37 38 39
25 25 25 25 26 25 26 27 26 31 33 34 35 31 35 35 38 44 42 40 41 44 41 43 43 43 41 42 37 35 35 35 36 37 37 38 38 39
22 23 25 28 25 27 31 30 34 36 31 30 27 33 33 37 36 33 35 38 41 43 31 40 44 42 42 46 39 29 30 30 31 32 33 34 36 37
24 23 27 24 27 27 28 35 31 31 30 29 27 30 35 29 25 26 32 34 40 42 39 30 32 41 44 43 26 28 30 31 31 32 33 34 35 37
23 23 26 26 27 25 30 30 31 32 32 31 35 33 27 24 24 25 31 33 34 38 27 33 37 33 32 24 30 45 36 32 29 30 32 34 36 38
24 24 27 28 26 28 27 27 27 28 30 33 31 29 27 27 28 30 30 29 32 34 35 29 34 36 24 38 48 40 37 37 35 29 23 25 27 29
25 28 30 28 28 27 25 23 23 25 29 26 26 28 30 29 32 32 29 27 27 30 28 22 28 31 35 41 41 39 37 37 27 31 34 32 29 29
26 26 28 29 29 26 22 22 24 25 23 23 27 31 30 32 35 34 31 30 31 28 24 21 23 28 31 36 38 36 38 43 31 40 41 38 34 29
27 31 29 26 23 21 22 25 26 25 23 26 29 29 29 34 35 33 34 33 35 32 26 24 24 27 30 29 28 33 35 31 43 44 44 39 31 29
26 27 27 25 24 24 26 28 28 27 28 28 29 28 31 35 34 32 31 31 32 34 34 28 26 27 25 24 28 28 35 39 41 44 44 40 34 26
24 25 25 24 24 26 29 32 30 29 28 28 27 30 34 35 34 31 29 30 31 32 33 32 30 33 33 29 22 30 34 38 41 43 43 41 37 30
23 23 23 24 25 26 30 33 33 29 28 27 30 32 32 32 30 29 29 29 31 31 32 28 26 27 28 28 34 30 33 37 39 42 42 42 36 24
22 23 23 23 24 27 31 33 31 29 29 30 32 31 30 30 29 28 28 29 31 31 30 27 26 24 23 24 28 32 31 33 32 37 44 42 30 26
23 23 22 23 25 29 32 32 29 29 30 32 31 29 29 29 28 27 27 28 27 26 27 28 25 20 19 21 23 30 30 30 26 27 36 37 39 34
23 24 22 23 25 30 31 29 28 30 31 31 28 28 30 29 27 26 26 28 26 25 25 25 24 21 19 21 24 26 28 31 32 21 22 28 32 24
24 23 23 24 27 30 29 28 29 30 30 28 26 28 30 30 24 24 25 25 24 24 23 24 24 23 18 20 23 23 25 29 33 30 24 22 23 24

GFSNE_850_spd_012.txt.gz
Wind_Speed
16 17 18 19 21 20 19 19 22 32 31 21 15 22 25 26 27 28 28 30 31 33 34 35 36 36 37 38 39 40 41 42 43 45 48 48 49 48
18 19 20 21 22 22 20 20 20 26 36 26 29 27 27 28 27 28 29 32 34 34 35 35 35 38 38 39 39 39 40 42 44 45 45 45 45 46
19 21 23 23 22 20 20 20 21 22 32 38 30 29 30 29 29 28 29 33 37 36 37 37 36 37 36 37 39 40 41 42 42 42 42 42 44 44
21 23 23 22 23 20 19 19 21 22 28 38 35 34 32 30 29 32 36 35 32 33 35 36 36 36 36 36 37 39 40 40 41 41 42 41 42 42
21 22 22 22 21 18 19 20 21 24 27 33 41 38 36 30 37 40 29 31 29 31 33 34 35 37 35 35 36 38 40 41 40 41 41 42 43 43
22 21 21 21 20 20 21 22 24 27 30 34 37 38 33 38 36 35 33 32 34 31 38 34 33 33 33 37 39 39 39 38 38 39 39 40 40 41
20 20 20 21 24 22 21 23 25 29 31 35 29 35 39 36 35 33 36 38 41 33 37 33 33 42 41 37 36 35 34 35 37 37 37 38 39 39
19 20 20 21 20 22 23 24 25 29 35 29 37 36 36 34 33 36 38 40 41 31 29 47 38 43 41 40 36 35 36 37 38 38 38 38 41 41
20 19 20 19 22 23 23 25 29 25 27 35 33 32 34 32 37 38 42 38 39 42 38 46 38 41 41 40 36 35 34 34 35 36 37 38 39 41
18 19 20 21 21 23 27 31 27 31 26 26 28 31 35 33 35 37 36 38 39 36 29 39 42 38 40 44 32 24 28 29 30 32 34 35 37 38
18 20 21 22 22 26 27 32 29 27 25 25 28 28 32 32 27 28 31 32 39 39 32 28 30 40 42 38 22 25 28 34 28 28 28 32 35 37
19 20 21 21 25 24 28 28 30 27 27 31 28 27 24 23 21 20 27 31 33 37 24 28 36 29 30 24 26 43 37 31 31 33 28 28 31 36
20 21 20 23 25 28 26 25 24 27 29 26 24 23 21 21 21 23 27 27 31 34 36 29 34 32 24 39 44 41 35 36 36 36 34 35 30 29
21 21 24 26 28 26 23 21 22 24 21 21 22 23 25 26 27 30 30 28 29 32 32 25 30 30 32 39 41 42 41 39 38 39 41 41 37 35
21 24 26 25 25 22 20 20 20 18 19 21 23 27 27 28 32 35 33 31 31 30 27 25 25 27 28 36 42 44 38 40 36 41 44 45 45 40
23 25 23 23 19 19 18 17 18 18 20 22 23 26 26 29 34 33 32 33 33 33 29 27 25 25 30 34 34 38 36 35 44 45 46 46 44 40
25 20 18 18 18 17 18 19 20 20 22 23 26 28 29 31 33 31 30 30 30 34 37 30 26 25 28 26 30 28 34 39 43 45 44 45 44 38
20 16 17 16 17 19 20 24 26 26 25 27 28 30 32 32 32 31 28 29 31 34 33 31 31 31 32 30 15 26 34 39 41 43 40 40 46 34
14 15 16 17 18 19 22 27 30 28 28 29 31 32 31 30 31 31 29 30 32 34 33 28 27 28 30 32 40 31 34 35 41 41 37 37 40 34
15 16 17 18 19 22 27 30 31 28 30 31 33 30 29 31 32 31 30 30 31 33 33 30 25 27 29 32 37 37 29 32 34 39 37 39 35 25
17 17 18 19 22 25 29 30 29 29 31 32 31 29 30 32 34 30 30 30 28 30 30 30 28 26 27 25 27 33 33 27 27 29 29 35 37 30
19 20 20 21 23 27 29 30 29 30 31 31 29 30 31 33 33 30 29 30 30 29 29 29 28 25 26 24 29 32 32 32 26 21 20 20 24 19
20 21 20 21 24 27 29 29 28 29 30 30 30 30 32 33 29 28 28 28 27 27 26 28 28 26 23 25 25 27 28 31 30 32 30 18 15 14

GFSNE_850_spd_015.txt.gz
Wind_Speed
15 15 16 17 19 20 22 22 22 27 29 23 21 12 27 30 30 30 33 31 30 33 35 35 36 36 36 36 37 38 37 38 38 37 39 41 42 43
16 16 18 19 21 22 22 21 22 26 33 27 28 27 28 29 31 29 32 31 32 34 38 36 36 36 36 37 37 37 38 38 38 39 39 39 39 41
16 18 21 22 22 22 22 22 23 23 30 34 30 29 30 31 31 31 32 37 39 38 36 34 35 35 35 36 36 37 37 38 38 39 39 39 40 40
18 20 22 18 22 22 20 20 23 24 28 34 33 33 30 34 31 36 33 37 35 36 31 34 35 35 36 36 37 37 37 38 39 39 40 41 41 41
19 20 21 20 21 20 20 22 24 26 28 32 36 34 36 34 31 35 39 32 33 33 34 35 35 37 35 34 35 36 37 39 40 40 40 41 42 41
20 20 21 22 22 20 24 22 23 27 29 32 36 40 36 28 34 34 35 34 36 37 39 38 32 34 34 35 38 38 37 37 37 37 38 38 39 40
20 20 19 20 25 23 21 24 27 30 32 36 38 37 35 37 33 32 34 36 44 34 41 38 31 43 41 37 37 35 33 34 35 37 38 39 39 39
20 21 21 22 19 20 22 23 25 28 33 37 36 36 39 33 34 34 42 38 40 40 26 49 40 44 43 40 35 34 34 33 34 36 36 37 38 39
22 22 20 18 20 21 22 23 28 28 26 33 36 31 34 39 40 40 38 40 44 44 40 47 43 46 41 40 35 34 35 30 31 31 31 33 35 36
19 18 19 20 21 22 27 30 33 32 28 28 30 34 36 37 36 36 39 41 40 40 31 39 45 42 40 45 39 22 22 25 26 30 34 35 32 34
16 18 19 21 21 22 27 32 33 32 31 26 28 30 31 31 29 28 33 35 40 43 38 36 33 42 47 46 34 23 26 34 30 29 30 31 33 33
17 18 18 20 20 24 28 33 36 34 31 33 34 32 27 26 23 22 28 33 39 45 36 30 40 35 31 36 31 41 37 35 33 33 31 32 32 34
19 21 22 20 24 27 28 29 29 27 30 32 28 29 29 27 26 28 27 29 36 41 39 31 39 39 30 42 48 44 41 39 39 35 33 32 34 33
22 24 24 26 27 27 26 22 22 25 25 25 29 31 31 30 29 29 31 32 32 36 37 31 36 36 38 42 45 47 43 41 40 39 37 40 43 42
21 23 26 26 24 24 20 21 20 22 24 28 31 31 31 32 33 33 33 32 32 33 31 30 32 33 34 40 44 47 42 45 35 39 41 45 47 45
25 28 28 21 19 20 20 19 20 21 23 27 28 31 33 34 34 32 33 34 35 36 31 31 30 27 32 35 38 44 42 39 44 43 45 47 47 44
26 27 20 20 22 21 21 21 21 24 25 26 30 32 34 34 32 32 34 35 33 36 38 36 33 31 31 33 36 39 37 39 41 44 44 46 48 43
23 19 18 19 20 21 22 24 26 28 28 28 30 32 33 32 34 34 34 33 33 36 36 38 38 39 36 34 24 28 36 40 42 41 41 43 47 45
17 17 19 19 20 21 22 26 30 30 28 29 31 33 32 32 33 36 35 34 35 36 37 38 34 34 35 37 46 30 33 38 42 44 41 39 40 42
16 17 20 19 20 22 24 29 31 30 28 30 32 32 31 33 35 36 35 35 35 36 39 35 32 34 34 37 44 45 36 38 39 42 43 37 34 33
17 18 19 19 21 22 27 30 31 30 29 31 32 32 32 34 36 36 34 34 32 34 35 36 36 31 32 32 34 40 39 31 29 33 30 31 33 37
18 20 20 19 21 24 28 30 31 30 30 31 32 31 32 36 37 36 33 35 34 33 34 35 36 33 32 31 34 37 39 36 30 26 24 25 27 22
19 20 19 20 22 26 28 30 30 30 30 31 30 30 34 37 35 32 33 32 32 31 30 35 35 30 28 29 30 34 36 35 35 36 31 23 15 10

GFSNE_850_spd_018.txt.gz
Wind_Speed
15 15 16 16 18 19 21 23 24 26 33 32 28 23 31 34 36 38 39 39 31 31 32 34 37 36 35 35 35 35 35 35 34 34 34 34 35 34
16 17 17 18 20 21 22 23 23 26 33 34 37 35 33 34 37 32 32 35 34 35 36 35 36 33 33 34 35 35 35 35 35 34 35 34 35 35
16 18 20 21 22 22 23 24 24 24 31 39 36 33 31 31 32 34 35 34 37 40 35 31 33 33 35 35 35 36 36 36 36 35 35 35 35 35
17 18 20 22 23 24 25 24 23 26 28 35 34 33 32 37 37 34 33 33 42 34 29 34 34 34 35 35 35 35 35 35 35 34 34 35 36 37
17 20 22 23 25 25 25 25 27 29 26 31 38 36 37 35 34 36 38 41 30 38 33 36 35 34 34 32 33 33 34 35 35 35 36 35 36 37
18 20 22 24 24 25 27 28 25 27 29 32 36 38 36 36 31 38 38 34 45 42 40 36 34 34 35 33 34 33 31 32 32 31 31 33 34 35
19 19 21 22 23 24 20 22 25 26 30 32 35 37 31 41 35 32 38 47 43 42 36 41 40 41 38 36 35 32 29 30 32 33 33 32 34 34
20 20 22 22 22 17 19 20 21 24 29 34 35 39 38 33 35 43 42 43 43 37 39 45 41 42 42 39 36 33 33 30 31 33 33 32 31 32
19 20 22 21 21 22 24 22 26 26 27 31 35 33 36 38 40 41 41 38 42 46 42 44 43 48 43 41 40 36 34 32 27 27 28 29 30 32
17 17 18 21 20 21 24 25 29 34 34 31 30 33 34 35 35 36 36 39 42 40 36 36 49 47 47 44 41 30 21 22 23 25 30 32 32 33
16 17 18 17 20 20 23 29 35 36 36 31 26 28 29 29 26 29 33 35 42 45 42 39 42 47 48 45 36 31 35 31 29 28 27 29 31 31
18 18 18 19 19 20 25 30 35 37 30 30 33 32 26 27 26 24 27 34 41 47 39 32 43 37 36 38 36 45 41 36 32 31 31 29 27 29
22 21 23 21 20 24 25 28 30 25 29 32 30 29 28 27 28 28 29 31 36 41 39 33 41 41 33 46 46 46 44 41 40 36 32 27 26 29
21 23 22 23 25 24 23 22 21 23 27 28 29 31 32 32 32 33 31 29 29 35 36 33 36 37 40 44 49 48 45 42 41 38 30 35 32 31
20 21 24 24 23 20 21 19 19 22 24 27 30 30 31 33 34 33 28 30 33 34 32 30 32 33 34 41 46 47 45 44 32 33 39 38 39 39
23 27 27 23 17 20 21 19 20 21 24 26 28 29 32 34 33 32 35 35 38 37 31 30 31 32 34 36 39 44 40 40 42 41 41 43 41 40
24 25 22 20 23 22 21 21 21 25 27 27 28 31 33 33 33 33 34 36 36 38 39 34 33 34 32 33 36 37 37 39 42 42 43 41 42 40
21 21 21 21 22 23 23 24 24 27 28 28 28 30 33 34 35 35 35 34 36 38 39 38 39 38 39 35 25 30 37 39 41 39 39 40 44 43
18 20 20 21 22 22 23 25 28 29 29 28 29 31 33 33 33 37 37 36 37 38 38 39 38 37 38 40 41 28 32 40 39 41 40 38 41 41
18 18 20 21 21 22 23 26 29 30 29 29 32 32 31 33 37 38 37 37 37 37 39 36 36 37 35 38 44 43 35 35 36 40 38 37 34 32
18 19 20 20 19 21 23 26 29 30 30 30 30 31 33 36 36 37 36 35 34 35 37 37 36 33 32 31 35 42 37 31 28 31 32 34 34 36
18 19 18 17 19 21 24 27 29 29 28 29 30 33 34 35 36 35 34 34 34 33 34 36 36 34 31 31 36 39 40 35 28 25 22 23 28 26
18 18 17 17 19 22 25 28 27 26 27 30 32 33 35 35 31 30 30 32 31 31 33 35 35 33 31 31 32 34 34 34 35 34 29 17 14 15

GFSNE_850_spd_021.txt.gz
Wind_Speed
12 13 13 13 14 16 18 20 22 22 31 28 27 32 33 34 32 32 32 33 28 31 29 28 31 32 32 31 30 31 31 32 33 33 34 34 34 33
13 15 15 15 16 18 20 20 20 23 25 31 34 36 36 36 35 34 35 35 31 31 28 30 33 30 29 30 31 33 32 33 33 34 34 34 34 34
14 15 16 18 19 20 20 22 23 24 29 35 35 36 35 37 34 32 31 29 31 35 31 30 28 30 32 31 31 32 33 34 33 33 33 33 34 33
14 15 16 18 20 22 23 24 25 25 29 37 34 34 35 35 33 31 28 33 36 33 28 30 32 30 32 32 30 32 32 33 33 32 33 33 34 34
15 16 18 20 21 23 24 25 26 27 26 30 34 34 36 36 34 33 41 34 35 38 35 33 34 28 28 29 30 31 32 33 33 32 32 33 33 34
15 17 19 20 22 23 24 26 25 25 26 28 32 36 38 34 32 39 40 39 44 38 38 33 29 32 29 31 31 31 29 29 29 29 30 31 31 32
16 17 19 19 20 22 21 19 21 24 25 29 34 36 32 38 37 37 43 45 42 41 39 31 40 34 34 35 33 30 28 29 31 32 32 31 31 30
17 18 19 20 21 19 18 18 19 21 26 29 32 36 39 35 37 39 40 42 42 37 37 46 36 38 39 39 35 33 32 31 30 32 34 32 29 29
18 20 20 19 19 21 20 19 21 22 23 28 34 34 34 34 35 37 37 36 39 44 44 47 39 43 42 40 38 33 28 25 27 27 26 26 26 27
19 20 20 19 20 18 19 22 23 27 30 32 32 32 29 29 32 34 35 36 39 38 36 41 44 45 42 42 37 27 25 28 25 25 27 31 31 30
18 17 17 16 18 17 19 24 29 31 32 31 25 25 25 28 24 25 29 32 39 41 38 38 39 45 45 42 33 28 35 32 32 27 26 27 29 31
15 18 18 18 17 17 21 26 30 33 30 27 29 30 27 22 21 23 28 32 36 40 36 33 40 39 28 36 24 40 39 39 34 32 28 27 27 30
20 21 21 20 18 21 21 23 26 23 27 29 30 28 25 23 25 26 28 29 33 35 35 33 38 37 31 42 42 43 43 41 38 34 30 27 22 22
21 21 19 21 21 21 19 19 19 22 24 25 27 28 27 27 29 29 28 26 27 34 35 30 33 33 36 42 46 46 42 39 37 36 29 28 28 27
18 18 19 22 22 18 18 19 19 20 22 25 27 28 26 28 31 31 28 28 30 30 29 29 30 31 32 38 44 45 43 41 30 29 34 33 33 33
17 21 25 21 18 18 18 15 16 18 22 25 27 27 27 29 31 30 33 34 37 36 28 30 30 30 34 36 38 43 40 38 38 36 36 36 36 36
19 22 19 19 19 19 17 16 17 20 23 25 27 27 29 31 31 30 33 37 37 39 38 32 29 32 33 33 36 37 37 39 39 39 40 41 39 38
18 18 19 17 18 19 19 19 20 22 25 26 26 27 30 31 33 34 35 35 37 37 38 37 38 38 37 37 29 32 38 40 40 39 38 39 44 40
17 16 16 17 18 17 18 21 24 24 26 26 26 28 30 33 35 36 36 35 36 37 37 38 37 37 38 38 41 28 31 37 36 39 38 40 40 42
14 15 16 17 17 17 19 22 24 26 26 25 27 29 31 33 35 35 34 35 36 38 40 36 36 36 36 40 45 42 33 32 35 38 39 37 36 34
15 15 15 15 15 17 19 22 24 25 24 25 28 31 32 33 33 32 33 33 34 35 37 38 36 32 33 35 36 40 39 33 30 32 34 36 36 36
15 15 14 14 16 18 21 23 24 22 23 27 30 31 32 30 31 32 33 35 35 35 37 38 36 34 33 32 36 40 41 38 31 27 23 22 27 27
15 14 14 15 17 19 22 23 22 21 23 28 30 31 31 30 30 30 32 34 35 36 36 35 34 33 34 33 33 38 40 39 37 36 27 20 17 19

GFSNE_850_spd_024.txt.gz
Wind_Speed
11 11 12 13 14 16 17 18 20 20 27 24 26 29 32 34 35 33 32 32 31 29 27 26 26 27 29 30 28 29 28 30 31 32 33 33 33 34
11 12 13 15 16 17 17 19 20 21 23 28 31 32 34 35 33 31 30 28 27 26 26 27 27 27 25 27 29 30 31 30 31 32 33 33 34 34
12 13 15 16 17 18 19 20 21 23 29 32 32 32 32 32 32 31 30 27 29 29 25 25 26 25 29 28 28 30 30 31 31 32 33 33 34 33
13 15 16 18 19 19 20 22 23 24 27 32 32 32 33 33 35 34 29 33 28 28 29 27 27 27 27 27 26 27 29 30 31 32 33 33 35 34
14 16 18 19 19 20 22 23 24 24 26 28 33 32 34 36 37 35 37 34 32 33 31 30 29 27 24 25 27 27 29 30 31 32 32 32 32 33
15 17 18 19 20 21 22 23 23 23 25 28 30 33 35 37 37 39 38 36 36 34 34 32 25 27 30 27 26 29 31 30 30 30 29 30 32 32
15 17 17 19 20 20 21 20 20 23 24 26 29 34 36 38 39 37 38 37 39 37 35 29 37 39 29 28 30 32 29 28 29 31 33 33 33 33
14 16 17 19 20 20 17 17 16 20 23 27 30 34 39 38 35 33 34 38 41 36 35 44 37 39 35 35 34 31 31 31 31 32 31 32 32 32
15 17 18 20 20 20 20 19 18 21 22 25 32 35 35 32 29 33 35 38 40 39 40 46 40 42 35 33 33 33 30 28 26 28 29 29 28 28
16 18 19 19 19 18 18 18 20 23 26 30 31 31 28 27 29 33 36 36 38 38 35 45 41 37 38 39 36 29 24 21 26 26 27 29 32 32
16 16 16 18 17 16 17 20 24 28 29 27 25 23 25 26 27 28 29 32 40 42 38 30 37 43 45 42 32 27 30 31 30 32 32 31 30 30
16 17 19 19 17 14 18 24 27 28 23 26 27 27 25 25 23 22 26 31 35 39 29 35 40 39 29 34 29 39 36 35 35 33 31 30 30 30
20 21 20 17 15 18 18 22 22 20 25 27 26 26 26 25 23 23 25 28 32 36 36 32 41 38 32 42 41 42 41 40 37 36 32 29 27 27
21 20 16 16 18 19 18 17 18 20 22 23 25 27 28 26 25 26 27 27 28 32 34 32 36 35 37 42 46 45 42 41 39 38 31 22 25 26
17 15 17 20 22 20 19 18 18 18 20 22 26 28 27 27 28 29 29 28 31 32 31 31 31 32 33 38 44 46 45 43 36 29 33 31 31 30
15 18 21 22 19 18 16 14 14 16 19 22 26 27 26 27 28 28 32 34 37 37 32 28 29 29 34 36 38 44 42 42 38 34 34 35 33 32
18 21 21 19 17 15 13 13 14 17 19 22 25 26 27 29 30 31 32 35 36 37 37 31 29 31 33 34 37 39 38 38 38 39 38 40 38 35
18 19 17 15 15 16 15 16 16 18 21 23 23 24 28 31 34 34 33 31 34 35 37 36 36 37 38 38 30 33 39 41 41 40 37 38 44 38
15 14 14 14 15 15 15 18 20 21 22 22 22 26 29 31 32 32 31 32 35 35 36 37 38 37 38 39 42 30 33 39 36 37 36 36 39 41
12 13 13 14 14 15 16 19 21 22 20 19 23 27 28 30 31 31 32 33 35 37 41 38 38 38 36 41 47 45 35 34 37 37 38 36 37 37
13 12 12 13 13 15 17 19 21 21 19 21 24 26 26 29 31 33 35 32 34 37 41 42 40 34 34 36 37 43 40 33 32 34 36 38 38 37
13 13 12 13 15 16 19 20 20 17 18 21 24 26 30 32 34 37 36 36 36 37 41 43 41 37 36 34 38 41 42 40 32 29 28 25 26 25
12 12 13 14 16 18 19 20 21 16 18 23 25 29 32 35 35 36 35 35 36 37 38 42 41 37 36 35 34 38 41 39 39 37 32 20 20 22

GFSNE_850_spd_027.txt.gz
Wind_Speed
17 14 14 14 15 15 16 17 18 16 24 22 23 23 29 32 34 34 33 33 32 30 29 28 26 26 27 27 28 28 28 30 29 31 32 31 31 31
16 16 16 16 17 17 17 18 19 21 21 23 28 28 30 32 32 32 33 33 30 28 29 30 27 26 27 27 27 30 30 30 31 30 30 31 31 32
16 15 16 15 17 19 18 19 20 21 26 29 29 29 30 31 31 31 32 31 31 30 28 27 26 26 27 28 28 29 29 29 29 29 30 31 32 32
15 17 18 16 19 20 20 20 20 22 26 30 31 30 31 31 32 34 33 31 30 28 27 26 26 27 26 27 28 27 27 28 29 30 31 32 33 33
15 16 17 19 20 20 20 20 22 23 25 28 30 30 32 33 35 36 36 35 31 28 27 28 27 23 24 24 26 29 30 29 29 30 32 32 33 33
16 16 19 20 20 20 20 21 22 23 23 26 29 29 32 34 34 39 40 35 33 30 31 25 23 27 29 27 27 26 28 29 31 32 31 31 31 32
16 17 20 19 20 20 20 20 20 21 23 24 27 31 33 35 37 38 36 34 36 35 32 30 35 35 31 31 31 30 30 30 31 29 30 32 33 34
16 18 18 19 20 20 19 17 18 19 21 25 27 30 34 37 37 33 31 35 40 33 38 41 37 39 37 33 28 28 30 31 31 31 32 33 33 32
16 16 18 19 20 20 19 18 18 19 20 22 28 32 35 34 29 31 31 35 39 39 38 47 42 41 32 31 31 32 31 29 28 30 31 30 31 31
14 17 18 18 18 17 18 18 18 21 23 27 30 32 29 27 29 31 35 38 38 36 34 45 42 38 39 39 36 29 24 25 28 28 28 29 30 32
15 16 17 17 18 17 15 18 23 26 26 26 25 25 24 26 27 29 32 32 38 39 37 29 39 43 45 43 35 32 34 33 32 32 33 33 33 34
15 16 18 19 15 12 17 22 26 26 22 24 25 25 25 23 24 24 26 29 32 39 29 32 39 36 32 38 38 42 39 37 35 34 33 31 30 32
19 19 19 17 15 15 17 21 21 19 24 26 26 24 24 25 25 24 24 27 32 35 38 32 39 40 34 45 47 45 42 41 40 37 33 31 28 27
19 19 20 18 16 19 20 19 19 19 22 22 24 25 26 26 25 25 26 27 29 33 34 32 37 36 38 42 47 46 44 43 40 38 32 25 25 25
19 20 17 19 22 21 19 18 19 19 20 22 24 25 26 27 26 27 28 30 34 34 31 28 30 32 32 38 45 46 46 44 35 32 35 33 31 28
18 18 19 23 23 21 18 16 15 16 18 21 24 25 25 25 27 29 32 32 35 35 32 29 28 29 34 36 38 44 42 42 40 35 35 36 33 31
18 21 21 21 19 16 14 14 14 15 18 20 22 23 24 28 30 30 30 32 35 37 38 32 31 32 33 35 35 36 37 38 37 39 38 40 35 32
17 18 18 18 17 17 16 15 15 16 19 21 20 21 26 28 30 30 30 33 36 36 37 37 38 38 39 39 29 31 38 41 41 41 39 39 44 38
16 15 16 16 16 15 16 17 18 19 20 19 19 23 25 26 30 32 33 36 38 38 39 39 39 38 38 39 43 33 33 40 39 38 38 37 39 40
14 14 13 14 14 15 17 18 20 21 20 18 20 23 23 28 33 34 34 35 36 38 41 39 38 38 36 40 46 45 36 33 39 39 39 38 38 37
13 12 12 13 14 16 18 20 21 22 20 19 20 23 24 30 34 34 34 33 35 38 41 42 40 38 39 40 38 45 42 34 33 35 36 38 37 35
12 12 11 13 15 17 19 21 22 22 17 18 22 23 26 32 35 35 34 38 40 39 41 43 43 41 40 39 42 43 44 41 33 30 27 26 28 26
12 11 12 14 16 19 20 21 24 22 16 20 23 23 28 34 35 36 37 40 41 42 41 42 42 40 40 40 38 41 43 40 38 38 33 22 22 22

GFSNE_850_spd_030.txt.gz
Wind_Speed
29 24 24 17 15 15 14 18 17 13 20 22 18 19 22 28 30 32 32 32 32 32 31 30 29 28 27 25 26 27 28 27 28 30 30 31 30 31
31 28 24 18 15 12 15 16 17 17 19 20 23 26 26 29 30 31 31 31 31 31 31 29 28 24 25 26 26 27 27 29 29 29 29 30 29 30
27 23 19 16 15 13 15 18 19 19 23 25 27 26 28 30 30 30 29 31 31 30 29 28 26 24 24 25 26 26 28 29 29 30 29 29 29 30
23 18 15 16 14 15 19 19 19 20 24 27 28 28 29 29 30 31 31 30 31 28 25 23 24 25 25 25 24 26 27 27 28 30 30 31 31 31
18 15 14 16 12 16 17 19 20 22 23 27 29 28 30 30 32 32 33 33 29 25 24 25 23 21 21 23 24 26 28 29 30 30 31 31 32 33
18 15 12 17 15 16 19 21 22 22 23 25 27 28 29 30 32 34 37 33 30 27 26 24 22 25 23 25 27 28 29 30 30 30 31 33 34 34
13 10 9 14 15 20 21 20 21 22 22 24 26 28 31 31 32 33 34 31 32 29 30 30 30 29 27 28 28 25 24 24 27 28 29 31 32 33
12 14 14 15 18 18 18 19 19 20 22 23 25 28 30 32 32 30 28 32 36 33 38 39 33 34 34 29 27 27 26 28 29 30 30 32 33 33
11 8 14 15 17 17 18 18 18 18 18 20 25 28 30 29 26 27 29 32 35 36 38 44 38 39 33 34 31 30 27 24 22 24 27 28 29 30
11 10 13 14 16 16 17 17 17 18 21 24 25 27 25 22 24 28 32 34 36 34 32 40 38 38 39 39 36 28 26 27 27 27 28 28 29 30
9 11 13 15 15 15 14 16 20 23 23 22 21 21 22 22 23 26 28 31 36 36 34 29 39 43 44 42 36 37 38 34 32 32 32 31 30 31
11 13 14 15 14 12 13 19 23 23 20 21 21 19 18 18 20 22 25 27 29 35 28 29 40 39 31 39 41 41 39 37 34 33 32 31 30 30
14 15 15 14 12 10 12 20 20 18 22 21 20 19 19 20 21 21 22 25 29 32 35 30 38 38 35 43 46 44 41 39 37 35 32 29 26 24
14 14 13 11 12 17 19 17 16 17 18 18 19 20 21 22 21 22 23 26 28 32 31 26 31 31 34 39 45 46 43 41 38 35 29 26 26 24
13 15 14 15 17 19 17 16 16 16 17 18 20 21 22 22 22 24 25 25 27 26 26 24 25 26 30 36 42 45 44 41 34 31 34 32 30 28
15 15 17 18 17 17 15 13 13 13 16 19 22 23 22 21 24 24 26 28 31 31 31 29 28 29 32 34 35 41 38 40 36 35 35 36 34 32
16 16 16 15 14 12 11 12 11 13 15 18 21 21 20 23 23 24 28 30 33 35 33 30 31 31 31 35 37 34 35 38 39 39 39 40 36 33
15 16 15 15 15 14 13 13 13 14 17 19 19 18 21 23 24 28 31 31 33 33 36 36 36 36 36 37 27 31 37 40 41 40 38 38 41 36
15 14 14 13 13 13 13 15 16 16 18 19 18 18 21 21 25 30 32 31 33 37 40 40 38 37 38 37 43 31 33 41 36 37 36 36 39 40
13 12 11 12 12 13 15 16 17 18 19 20 16 18 21 23 27 32 34 34 36 40 43 41 37 38 37 41 47 47 37 36 38 37 36 34 35 34
11 10 10 11 12 14 16 17 19 20 22 21 17 19 20 23 28 32 34 34 36 39 41 42 38 35 37 40 40 47 43 34 35 33 34 33 35 35
11 10 10 11 13 15 17 18 20 20 22 19 17 20 20 22 29 33 34 37 40 39 40 42 42 39 38 38 41 45 46 39 32 30 25 22 25 26
11 11 11 12 14 16 18 20 22 22 24 20 19 20 21 25 29 32 34 38 40 40 40 43 42 38 39 39 38 41 42 40 37 39 33 25 22 22

GFSNE_850_spd_033.txt.gz
Wind_Speed
39 37 35 35 33 27 24 21 20 16 17 17 15 16 16 19 25 28 29 30 31 31 30 30 30 29 29 26 24 24 25 26 27 28 28 29 31 32
39 38 36 33 27 26 24 21 20 17 18 16 17 18 21 24 25 28 30 30 30 29 30 31 30 28 26 24 24 24 25 27 28 29 29 29 29 29
38 35 34 30 25 20 18 17 16 16 19 22 21 21 23 24 26 28 28 28 30 28 29 29 27 25 23 24 25 26 26 27 27 28 28 29 29 29
37 33 28 26 22 21 20 16 16 16 19 24 24 23 24 24 26 27 27 27 29 28 27 24 22 23 24 23 23 23 24 25 27 28 29 30 31 31
34 28 26 24 24 24 20 16 15 16 19 27 27 25 26 25 26 27 29 29 28 25 22 20 20 21 19 21 23 24 26 28 30 30 30 30 31 31
26 24 24 23 21 17 15 16 16 15 20 24 26 26 27 25 26 28 29 29 28 23 22 18 19 22 20 20 23 25 27 28 28 28 28 29 31 32
21 20 18 17 15 14 12 12 16 19 19 23 25 25 26 23 21 25 28 27 26 24 22 23 26 23 21 22 24 23 23 25 26 27 28 29 31 32
16 17 14 12 14 10 11 14 17 19 18 22 24 24 22 24 26 26 25 24 24 23 27 29 29 27 25 25 25 25 25 26 28 29 29 31 31 31
10 8 10 8 6 10 14 14 15 18 19 19 23 23 24 23 25 22 24 25 28 29 31 33 30 31 27 29 27 27 25 20 22 24 27 29 30 30
7 5 5 9 10 11 14 15 16 18 18 20 22 22 23 20 19 24 25 25 27 29 26 26 29 31 33 34 33 27 23 25 26 24 26 28 29 31
3 6 8 10 10 13 14 15 17 19 19 21 21 19 18 18 18 21 23 24 27 26 26 22 34 34 37 37 32 30 30 29 29 29 28 29 30 31
5 8 11 12 11 9 10 16 19 20 19 17 16 15 14 14 15 18 20 22 23 27 24 28 33 32 23 36 35 37 35 32 28 28 28 28 28 29
7 9 10 8 7 8 11 17 18 15 18 17 15 13 13 13 14 15 16 19 23 27 27 23 32 31 27 33 39 38 39 39 36 34 31 25 20 21
9 10 9 7 8 13 15 15 14 14 14 13 13 13 14 14 13 14 17 19 22 24 21 24 30 29 31 37 41 40 37 39 38 33 26 26 27 24
9 9 9 11 13 14 12 11 10 10 10 12 13 14 16 15 13 16 15 18 23 23 22 20 23 25 28 34 39 41 40 34 28 30 30 31 31 29
9 10 12 12 12 12 10 9 9 9 11 13 15 17 16 14 15 16 19 23 27 25 23 23 26 29 32 34 35 41 35 34 34 32 34 34 34 31
13 12 11 9 8 7 7 7 8 9 11 14 16 17 15 16 17 16 20 24 27 30 31 28 29 30 30 32 34 34 32 36 35 39 37 37 35 32
10 10 9 9 8 8 8 7 9 11 13 15 16 17 16 17 20 18 22 26 29 30 32 33 32 32 33 34 25 30 37 37 38 35 35 35 42 35
11 10 9 8 8 8 9 11 11 12 15 16 18 17 17 19 20 20 24 28 31 32 34 35 34 33 33 35 37 26 32 37 35 38 35 36 38 37
11 9 8 8 8 9 10 12 13 14 16 18 19 17 17 20 21 22 26 30 32 33 36 34 33 33 32 37 44 45 34 33 36 38 38 37 36 32
10 8 8 9 9 11 12 14 16 17 18 21 21 19 19 21 22 23 27 30 31 33 37 38 35 34 34 35 36 42 42 34 32 33 33 32 34 35
10 9 9 10 11 13 14 16 18 18 20 21 22 20 20 21 24 25 28 32 33 34 38 40 40 38 34 32 37 41 44 39 33 29 27 26 25 27
11 10 10 11 13 15 17 19 20 21 22 23 24 24 23 24 23 26 30 32 34 36 38 43 40 37 35 36 34 39 42 41 39 38 34 26 25 23

GFSNE_850_spd_036.txt.gz
Wind_Speed
51 48 44 42 38 36 34 30 28 20 20 19 18 19 18 19 21 22 28 31 31 31 32 31 32 33 32 33 32 29 26 25 25 25 25 27 27 29
47 48 45 40 38 36 34 33 30 26 19 13 16 16 16 17 23 28 30 33 32 32 31 32 33 33 32 29 25 24 25 24 25 26 26 27 28 28
41 44 41 39 37 34 34 30 30 28 26 25 20 19 23 24 22 29 30 30 30 31 31 32 32 30 27 25 25 25 25 25 25 26 27 27 27 28
37 39 36 34 33 32 28 27 26 24 25 22 23 24 23 19 23 30 31 30 30 30 31 30 28 27 26 25 24 25 24 24 25 26 27 28 28 28
35 32 31 32 29 26 25 23 20 18 19 20 19 21 18 22 26 27 25 27 28 28 29 25 23 24 22 23 25 26 26 27 28 29 30 30 30 31
27 28 27 23 22 21 19 16 17 17 18 17 17 19 24 24 23 22 20 20 23 24 25 23 22 21 23 24 24 25 26 29 29 29 30 30 29 30
20 18 17 18 16 17 17 17 16 15 17 18 19 20 20 14 15 16 19 20 21 23 21 19 20 22 23 22 23 24 25 26 28 29 30 30 30 31
14 14 15 16 15 16 16 16 11 11 16 18 18 15 14 14 15 16 17 19 21 19 15 22 23 25 24 22 23 25 25 27 28 29 29 29 30 31
14 14 13 14 13 12 10 10 11 13 16 15 17 16 16 15 18 22 17 18 22 23 23 26 23 25 22 24 25 26 26 24 24 24 27 29 29 31
9 10 10 7 7 8 10 11 14 15 16 18 18 17 17 17 15 18 20 21 21 22 19 26 23 22 23 25 27 24 21 22 23 23 24 27 28 30
3 2 3 4 7 9 11 13 13 12 15 19 22 23 20 19 18 18 18 17 21 22 20 21 21 20 24 28 22 24 28 27 25 24 26 28 29 30
2 4 6 7 7 8 8 10 11 14 16 18 13 15 15 15 14 16 17 20 20 21 10 18 20 20 17 26 23 28 28 31 30 30 28 27 27 29
5 7 7 8 10 11 11 11 14 17 15 16 14 12 12 12 13 15 17 19 21 24 21 19 29 28 23 29 34 33 33 33 33 35 33 28 25 23
6 8 10 11 11 12 13 16 16 15 13 12 12 11 12 14 15 15 15 19 21 23 21 23 29 27 29 35 39 40 38 34 32 34 29 27 28 26
10 11 10 10 12 13 12 11 10 10 10 11 11 13 14 16 16 15 16 17 21 22 20 17 23 26 29 34 39 41 38 36 27 26 31 29 30 29
9 10 10 11 11 10 8 8 8 8 10 12 13 15 16 17 16 16 19 19 23 24 22 22 23 26 31 32 33 40 37 32 32 29 29 31 30 29
11 10 10 10 9 8 8 8 8 10 11 13 16 17 18 18 17 17 20 21 24 26 27 25 24 26 28 30 33 33 33 35 33 33 33 36 35 34
11 11 11 10 8 8 7 8 9 11 13 15 17 19 20 20 20 20 20 20 24 27 29 29 29 30 32 33 25 32 35 35 36 35 32 35 39 33
11 11 10 9 8 8 8 9 10 12 14 16 18 20 21 21 20 22 22 22 26 28 31 30 28 27 31 36 32 23 31 37 35 34 34 33 38 39
11 11 10 10 9 9 10 11 12 14 16 18 19 20 21 22 23 24 24 26 28 31 34 33 30 28 29 36 44 43 31 29 34 39 39 35 35 34
12 12 11 11 12 12 12 13 15 16 18 20 21 22 22 23 25 26 27 28 29 32 36 37 34 30 33 35 38 40 37 35 35 35 36 37 35 34
13 13 13 13 14 14 15 16 18 19 20 22 24 25 24 25 27 28 28 30 32 34 37 38 38 37 34 34 39 44 48 45 39 36 31 29 31 30
14 14 14 14 15 16 18 19 21 22 22 24 26 27 27 28 28 28 30 31 33 35 37 39 40 37 37 39 40 42 45 45 44 43 38 30 30 29

GFSNE_850_spd_042.txt.gz
Wind_Speed
41 43 46 47 45 45 45 42 37 28 32 30 26 31 37 36 32 31 31 28 27 24 23 27 31 32 32 31 29 29 30 29 28 24 21 20 20 20
38 39 41 42 44 44 43 43 41 35 25 26 26 28 34 37 32 34 31 29 27 27 28 32 31 31 31 31 31 30 29 27 24 20 20 20 20 21
30 34 36 35 36 37 37 37 38 36 35 33 34 29 27 30 30 29 27 27 29 31 33 30 29 32 32 33 30 28 26 24 22 20 19 19 20 20
23 28 31 32 32 32 31 30 29 30 28 26 27 21 22 27 26 27 29 31 30 27 25 27 31 30 26 25 24 23 23 21 21 20 20 20 21 21
19 22 25 27 29 27 23 21 18 17 18 17 20 21 22 26 26 28 27 25 24 24 24 23 23 25 24 23 22 22 21 21 22 23 22 22 22 23
18 18 19 19 17 14 13 10 10 11 13 16 17 18 20 21 21 22 21 19 19 19 21 23 24 25 22 19 19 19 20 21 22 23 22 22 23 24
11 9 7 6 6 8 9 8 10 11 12 14 12 14 15 17 16 14 16 16 19 20 24 26 21 18 17 19 19 19 20 20 19 20 21 22 23 25
0 1 4 7 8 8 8 8 9 10 11 11 11 13 13 11 9 11 16 20 23 22 18 20 20 17 15 15 16 15 16 17 19 20 22 23 24 26
3 2 2 2 3 4 5 6 8 10 11 10 10 10 10 11 14 17 20 22 22 19 19 22 17 17 15 15 14 14 16 17 18 18 20 23 24 25
2 1 3 4 5 6 7 7 8 8 8 9 12 12 14 15 17 18 19 21 20 19 17 25 18 17 15 14 15 15 12 13 17 19 21 24 25 25
1 3 5 5 4 5 6 7 7 6 6 10 11 12 15 16 17 17 16 17 19 18 15 18 15 21 20 17 11 11 20 20 22 23 23 24 25 26
5 4 5 6 7 6 7 8 9 11 13 15 16 16 14 13 11 11 12 14 15 17 6 14 21 22 20 17 21 23 23 24 25 25 25 25 24 26
7 8 10 9 10 11 11 10 13 14 14 15 14 12 9 8 8 10 12 14 17 19 20 18 23 23 25 31 29 27 28 27 27 27 26 23 22 21
10 11 12 13 13 13 13 13 14 15 14 11 10 9 9 10 12 15 17 19 21 22 20 21 25 23 26 31 35 31 30 28 28 25 25 25 22 22
12 13 13 13 14 13 13 13 11 10 9 8 8 9 10 12 13 16 18 19 20 19 19 19 20 21 25 30 34 35 37 33 26 31 28 29 27 24
15 14 15 14 12 11 10 8 8 7 8 9 10 12 13 15 16 17 19 20 21 21 20 19 20 22 26 28 31 37 35 37 35 32 33 34 30 27
15 13 12 11 12 11 9 8 8 8 9 11 13 13 14 16 16 17 18 20 22 24 24 23 21 21 25 29 33 36 36 36 35 35 35 38 33 29
15 13 12 12 14 13 11 10 10 11 11 12 13 15 17 17 19 19 19 20 22 23 25 25 26 27 30 34 32 33 35 38 37 38 38 39 38 33
13 12 13 14 14 13 12 12 13 12 13 14 15 16 18 20 21 22 22 23 25 25 25 25 25 26 31 36 35 29 31 35 40 40 35 36 39 38
14 15 14 13 13 13 12 14 15 14 15 16 18 19 20 22 23 24 25 27 28 29 30 29 30 29 30 35 40 42 39 40 34 37 39 39 41 41
13 13 14 14 14 13 14 15 17 17 17 19 20 22 23 24 26 27 28 28 28 29 33 33 31 28 28 31 38 42 38 32 32 35 37 40 46 44
14 14 13 14 14 14 15 16 18 18 19 20 21 23 24 26 29 29 30 32 32 33 35 35 32 31 31 31 39 41 41 38 36 37 35 35 42 43
15 15 15 15 15 16 17 18 19 20 21 22 23 24 26 28 29 30 32 32 33 34 34 36 34 34 37 36 36 41 42 43 41 41 40 37 35 41

GFSNE_850_spd_045.txt.gz
Wind_Speed
31 32 34 36 37 35 40 41 42 29 35 37 35 39 42 41 39 36 31 30 33 36 35 27 27 27 32 32 30 30 28 28 28 28 27 22 19 19
26 29 30 32 33 35 30 38 39 39 37 33 35 38 35 34 35 39 29 34 33 28 27 25 28 32 31 29 28 29 28 28 27 23 19 19 20 20
23 24 25 25 26 27 26 28 36 34 36 36 33 30 30 34 35 37 30 29 25 26 23 27 31 29 27 29 31 30 27 25 23 20 19 19 19 19
15 18 19 20 19 21 24 26 29 25 25 29 29 27 27 31 29 30 27 26 26 23 26 29 29 26 27 27 24 23 22 21 19 19 18 19 19 19
16 15 17 19 21 26 28 25 23 18 20 21 23 24 24 23 25 25 22 21 24 25 27 26 21 21 23 23 23 21 19 19 19 19 19 20 20 20
13 14 14 16 18 18 17 14 11 10 13 15 13 18 19 19 19 19 19 21 21 19 18 18 19 22 24 23 19 19 19 20 21 20 19 20 20 20
9 10 11 10 8 6 4 5 6 7 10 11 12 14 16 16 16 16 17 16 16 17 20 17 22 18 17 18 19 18 19 19 19 18 18 19 20 20
4 3 2 2 2 2 2 4 5 6 8 9 11 12 12 12 12 13 13 13 15 17 17 19 18 14 13 14 15 16 15 15 15 16 17 19 20 22
5 4 4 3 2 4 5 6 6 7 8 9 11 12 11 11 12 13 14 17 21 20 21 22 12 10 10 11 10 10 11 12 13 13 15 17 19 21
4 4 3 5 6 7 8 8 7 6 8 10 11 10 11 12 14 17 17 19 20 18 15 20 11 10 9 9 11 10 6 6 12 14 17 20 23 24
3 4 4 4 6 8 8 8 8 8 8 8 10 10 11 13 14 16 16 16 16 13 11 16 8 16 13 9 7 5 11 11 14 17 18 20 22 25
7 8 9 9 8 8 10 10 11 11 11 13 15 16 16 13 12 12 11 11 11 10 3 12 17 16 10 9 7 16 12 13 14 16 18 20 21 24
10 10 11 10 10 10 12 10 11 13 14 14 15 12 9 7 7 8 9 11 14 16 16 16 21 19 19 22 23 18 15 17 17 16 15 15 19 21
11 11 12 12 12 11 11 11 11 12 12 10 8 7 7 8 9 10 12 15 18 21 20 20 24 22 24 28 31 26 24 22 23 18 17 19 20 20
14 15 14 13 12 12 11 10 11 10 8 7 7 7 9 10 11 12 13 16 19 19 20 19 21 22 23 28 33 34 32 29 25 23 25 24 24 23
15 14 14 13 12 12 11 9 8 7 8 8 9 10 11 12 13 15 16 16 19 18 17 17 19 21 25 28 29 35 33 36 33 30 29 29 29 27
14 13 12 11 11 11 11 10 9 9 10 11 13 13 12 12 13 14 15 17 19 20 19 18 19 21 24 27 31 34 36 36 34 32 31 32 33 30
14 13 11 11 12 12 11 10 10 12 13 12 12 12 14 14 16 16 17 18 20 21 22 21 22 24 25 28 28 31 29 32 33 32 33 37 39 32
12 11 11 11 11 12 11 11 11 12 12 12 13 14 15 17 19 20 20 21 22 24 24 24 23 25 30 35 34 27 27 29 34 39 37 35 37 36
11 12 11 11 11 11 11 12 12 13 13 14 15 16 17 19 22 22 23 24 26 27 29 27 28 27 29 34 37 38 33 37 33 35 34 33 34 34
10 11 11 11 11 12 12 13 14 14 15 16 17 19 20 22 24 25 26 26 27 29 32 32 27 26 27 29 37 40 36 32 32 32 33 36 38 37
12 11 11 11 12 13 13 14 15 15 16 18 18 20 21 23 25 26 27 28 29 30 32 32 29 28 29 31 39 42 41 37 34 32 31 30 35 39
12 12 12 12 12 13 15 16 17 18 18 19 20 22 23 25 25 27 28 29 30 31 31 35 34 32 34 34 35 40 42 41 38 39 39 35 33 34

GFSNE_850_spd_048.txt.gz
Wind_Speed
23 27 26 26 27 28 30 34 36 23 25 31 28 34 35 37 37 41 41 44 40 39 30 32 31 35 37 36 32 25 31 31 28 27 26 27 25 23
25 24 26 25 23 26 26 28 29 31 29 29 26 28 30 32 33 38 44 43 39 34 33 32 32 32 32 28 25 28 30 27 27 27 24 22 20 20
21 21 21 21 20 21 21 22 22 24 30 33 29 26 32 29 33 36 39 38 33 29 31 28 27 28 24 25 29 28 28 26 24 23 21 20 20 20
13 13 14 16 17 19 21 22 22 22 23 25 27 22 25 24 26 27 27 31 30 28 27 22 24 25 27 29 27 21 23 24 24 22 21 19 19 20
14 15 15 16 19 21 23 24 22 19 18 17 20 20 20 22 24 24 25 26 24 24 22 22 24 25 23 21 22 23 23 21 20 20 19 19 19 19
9 9 11 12 15 17 17 17 14 12 11 10 11 13 13 14 18 19 21 20 20 21 21 19 16 19 22 25 25 26 24 24 22 21 20 19 19 19
7 7 7 9 8 8 8 7 6 5 6 6 7 8 8 11 12 13 15 17 18 17 16 15 20 22 21 22 22 22 22 22 21 20 18 17 17 18
3 4 5 4 4 5 6 6 6 6 7 7 8 9 9 10 12 14 15 14 13 13 14 16 20 20 20 20 18 18 17 17 18 17 17 17 18 18
5 5 5 5 6 6 6 7 8 9 9 9 10 11 11 10 10 10 11 14 16 18 21 25 19 16 14 14 15 15 15 16 16 15 16 16 17 18
7 7 7 8 8 8 8 8 8 8 8 9 9 9 10 11 12 15 16 18 20 20 19 22 12 12 12 11 14 15 15 14 12 13 17 19 20 23
7 7 8 9 9 10 9 10 9 9 9 10 10 9 10 12 13 17 16 15 16 13 11 15 11 12 12 13 14 14 13 9 13 14 17 19 22 24
9 9 10 10 10 12 12 11 11 12 12 13 14 16 17 16 15 17 16 14 12 10 5 9 15 15 8 8 12 15 12 12 13 13 16 17 20 21
11 11 11 11 11 12 13 12 12 14 14 14 14 13 12 11 10 10 10 11 13 14 13 16 20 17 16 19 16 19 21 18 16 16 15 16 15 20
11 11 11 11 12 12 11 11 11 12 11 11 9 8 8 8 10 11 13 14 16 18 18 20 25 22 21 24 29 24 22 22 23 21 19 17 20 21
14 13 13 12 11 10 9 10 10 10 9 8 8 8 10 11 12 14 14 16 18 19 20 21 21 21 21 25 30 30 30 28 28 24 19 26 26 25
13 12 12 12 11 11 11 10 10 9 9 9 10 11 12 14 14 14 16 16 17 15 14 15 16 18 23 26 29 32 30 33 32 32 31 31 29 28
14 12 12 10 9 10 10 10 9 10 11 13 14 14 13 13 13 14 15 16 18 18 16 14 15 17 20 22 27 29 28 30 29 27 28 31 30 29
14 13 12 11 11 11 11 10 10 11 12 14 13 14 14 15 16 15 16 18 20 20 20 19 19 22 24 26 25 27 26 30 27 27 28 33 37 31
12 12 12 12 12 12 12 12 11 12 13 13 14 14 15 17 18 18 19 21 22 22 22 22 22 23 29 34 33 26 26 25 29 33 32 35 37 36
12 12 12 12 13 13 13 13 13 14 15 15 16 16 16 19 21 22 23 24 26 27 28 26 25 24 27 31 35 36 30 33 31 35 33 33 34 35
12 13 13 13 13 14 14 15 16 16 17 18 19 19 19 21 24 25 26 26 27 28 32 31 27 25 27 30 37 41 35 31 32 33 32 34 37 37
12 13 12 14 14 15 16 17 18 18 19 20 21 21 22 23 26 26 27 29 29 30 31 30 28 27 28 30 37 39 39 36 33 33 32 32 33 36
13 14 14 14 15 17 18 19 20 20 20 20 22 23 24 25 25 27 29 29 30 30 29 31 31 32 33 34 36 40 42 41 39 40 38 32 29 30

GFSNE_850_spd_054.txt.gz
Wind_Speed
21 21 20 18 22 21 18 20 17 20 18 14 16 15 17 18 20 22 23 22 22 23 30 30 28 34 34 36 36 37 33 30 25 25 27 25 25 23
18 18 16 15 19 19 18 19 19 20 16 19 21 22 22 23 25 24 23 22 21 20 23 30 33 36 32 32 34 33 28 25 24 23 25 22 20 21
10 12 15 14 12 11 11 13 15 16 19 20 22 25 25 26 24 23 19 16 13 8 21 25 28 30 32 26 28 27 27 19 20 23 19 19 17 18
9 9 8 8 10 9 10 12 15 16 19 21 24 23 22 21 21 18 14 13 10 17 22 25 23 23 23 22 25 20 21 23 26 23 20 20 20 18
7 7 7 8 8 7 8 10 12 13 16 18 17 16 16 15 14 14 13 12 11 15 20 24 24 27 24 21 21 22 21 21 23 25 24 22 19 18
5 5 4 5 5 5 6 8 9 9 9 9 8 10 12 11 10 11 11 11 11 12 14 15 17 19 22 24 24 25 26 25 24 25 24 22 22 20
3 3 4 4 3 3 4 5 7 7 7 7 8 9 10 10 9 10 10 10 11 11 12 14 15 17 17 18 19 21 23 24 25 24 23 21 18 19
5 5 5 5 5 6 7 8 9 8 7 8 9 9 10 10 11 11 12 12 11 12 13 12 14 15 16 19 22 25 25 25 23 21 22 21 18 14
5 5 6 6 6 6 7 8 9 10 10 9 9 9 9 10 12 12 13 14 15 16 20 21 18 20 20 21 22 22 20 18 16 15 15 14 14 14
6 7 7 8 8 8 8 8 9 10 10 10 10 10 10 11 11 12 13 15 17 16 17 20 19 15 13 14 15 14 13 13 13 14 13 13 14 15
9 9 9 10 11 10 10 10 10 10 11 11 10 10 11 12 15 16 17 17 17 15 12 12 12 13 12 11 12 14 14 15 17 17 16 16 16 18
10 10 12 12 13 14 12 12 11 10 10 10 11 12 13 13 13 14 13 12 11 8 6 12 15 16 9 8 6 9 10 12 16 17 16 17 18 20
10 11 11 12 12 13 13 12 12 12 11 12 11 10 9 9 8 8 8 9 10 11 13 16 17 19 19 21 17 13 16 15 16 20 21 19 22 25
11 12 11 11 11 11 11 11 12 11 12 11 10 9 8 8 9 9 11 12 13 14 14 17 22 20 21 24 25 19 17 15 19 22 26 30 29 30
13 12 11 11 11 10 10 10 11 11 11 10 9 8 9 10 11 12 13 16 16 15 16 16 18 18 20 23 25 25 25 22 18 14 15 18 21 23
14 13 12 12 12 10 10 11 11 11 11 10 10 10 12 14 14 14 14 14 16 12 11 14 17 20 22 23 24 28 24 28 26 23 24 24 24 25
14 13 13 13 12 12 12 12 11 12 12 12 12 13 14 15 15 15 15 16 17 17 15 11 14 20 24 26 30 28 26 27 27 26 26 28 26 23
15 14 14 14 13 13 13 12 13 13 14 14 14 15 16 16 17 17 17 17 18 19 21 20 20 21 23 26 26 25 26 27 22 22 24 29 33 27
14 15 15 15 14 14 14 14 13 13 15 16 17 17 17 18 20 20 20 20 21 22 22 22 22 22 25 29 32 26 25 22 26 28 28 29 33 32
16 16 16 15 15 15 15 16 15 15 16 17 18 19 19 20 21 23 23 23 24 25 26 24 23 23 25 29 32 32 26 29 28 30 31 31 33 33
16 17 16 15 16 16 17 17 18 18 17 18 19 19 20 22 23 24 24 25 26 27 30 29 26 25 26 27 34 36 33 31 30 32 31 33 37 37
16 17 15 16 16 17 18 18 19 19 19 19 20 22 22 24 25 25 26 27 26 28 30 30 26 25 25 28 35 38 39 36 32 31 31 31 35 37
16 17 15 15 16 18 19 21 21 22 22 21 22 23 23 25 24 26 27 27 28 29 29 31 30 30 31 32 35 40 40 39 37 39 38 30 30 31

GFSNE_850_spd_057.txt.gz
Wind_Speed
15 16 18 20 22 22 23 20 18 13 14 10 12 12 17 18 19 18 19 20 17 20 22 22 23 25 24 32 31 32 31 21 22 27 31 27 26 26
18 20 19 19 21 22 19 19 18 17 16 14 14 16 17 17 19 21 21 18 20 20 22 20 18 24 23 19 22 29 32 36 32 29 28 24 25 25
14 16 17 19 18 16 13 12 11 13 14 16 16 17 20 19 19 17 18 13 13 13 10 12 20 21 23 27 31 30 31 30 30 28 19 26 21 20
8 11 13 10 10 12 12 11 13 14 15 17 17 18 16 11 12 12 9 11 11 8 11 13 15 18 21 25 24 27 25 24 23 24 26 22 21 23
7 7 7 7 8 9 10 10 11 11 13 14 13 10 6 9 8 8 8 8 8 8 13 21 21 22 24 26 24 23 21 21 22 22 24 26 25 23
5 5 5 6 6 7 7 7 8 8 7 6 5 5 6 7 8 8 8 9 8 8 9 12 15 18 21 22 23 24 24 25 25 24 24 25 24 23
3 2 1 1 1 3 3 4 5 5 4 4 5 7 9 9 10 10 10 10 10 10 10 12 12 14 15 17 18 20 22 23 23 23 24 25 25 23
3 1 1 2 3 5 6 7 6 5 5 6 6 7 9 10 10 10 10 10 9 11 11 11 14 14 17 18 19 20 21 22 23 24 24 24 23 21
1 1 3 4 5 6 6 7 8 8 7 7 7 7 8 9 10 10 11 11 12 14 17 17 14 14 16 17 19 20 20 20 20 19 18 18 16 14
1 3 5 5 5 6 7 8 8 9 8 7 7 8 9 9 10 11 12 13 14 14 15 15 13 9 9 12 11 11 11 12 12 13 12 12 13 14
4 5 6 7 7 6 7 7 7 8 8 8 8 9 9 11 13 12 12 12 11 9 7 6 10 13 10 7 7 8 8 10 12 14 14 14 15 17
6 7 8 8 10 8 7 7 7 7 7 8 9 9 9 9 9 9 8 7 7 5 5 10 11 12 8 6 5 11 12 10 11 13 15 16 16 17
7 7 8 10 10 11 9 8 8 6 6 7 7 7 6 6 6 5 6 7 7 7 11 12 13 15 14 18 16 14 10 11 15 16 17 18 20 21
8 8 8 8 8 9 9 10 9 7 8 8 7 6 6 6 6 8 9 10 11 12 12 14 18 17 17 21 22 17 17 14 14 15 19 22 24 29
8 8 7 6 7 7 8 8 8 9 8 8 7 6 6 7 9 11 11 13 13 12 13 13 14 16 18 21 24 25 23 20 16 8 10 17 19 22
10 9 8 7 7 7 7 8 9 8 8 8 7 7 8 10 10 11 11 12 14 11 12 13 15 18 20 22 23 26 24 24 22 22 21 22 23 23
9 7 8 8 8 8 8 9 9 9 9 9 8 9 9 11 11 12 13 14 15 14 13 12 15 20 23 24 28 26 25 26 23 22 24 24 22 20
10 9 10 10 9 9 9 9 10 11 10 10 10 11 11 13 14 15 15 15 16 17 18 18 20 21 22 24 24 23 25 26 23 18 20 25 27 25
10 11 12 11 10 11 11 10 10 11 11 12 13 13 14 15 16 17 18 19 19 19 20 21 21 21 24 28 30 25 26 23 24 24 23 26 30 29
12 13 12 12 11 11 11 12 12 12 12 14 15 15 16 17 19 19 20 21 22 22 23 22 21 21 24 28 31 32 25 28 26 30 29 30 33 33
14 14 13 12 12 12 12 13 14 13 14 15 15 17 17 19 20 21 21 22 24 25 26 25 24 23 25 28 34 37 31 26 28 30 33 34 36 35
14 14 13 12 12 13 13 14 15 16 16 17 18 19 19 22 22 22 23 24 24 25 28 26 24 24 26 30 36 37 36 32 29 29 30 30 34 36
15 15 14 13 13 15 16 17 18 19 18 19 20 20 21 22 22 23 24 24 25 26 27 28 27 27 29 31 33 35 35 35 35 35 35 28 27 30

GFSNE_850_spd_060.txt.gz
Wind_Speed
16 17 17 17 15 17 19 19 21 14 12 16 16 16 17 17 19 19 19 20 21 21 21 20 23 24 27 31 19 18 18 23 20 17 21 23 27 23
15 16 17 17 14 15 15 15 18 17 16 18 18 19 19 20 20 21 21 20 20 18 19 19 19 18 21 23 24 22 28 35 36 29 24 24 29 26
15 16 16 18 18 18 18 17 18 15 16 17 17 19 20 22 23 19 16 17 13 12 16 10 8 13 15 14 18 19 19 22 28 31 36 34 30 23
10 11 11 12 14 14 13 14 14 13 14 17 18 20 21 18 11 12 8 9 10 10 9 8 13 14 13 16 19 22 27 28 26 29 30 27 24 30
11 12 12 11 11 11 11 12 12 13 13 16 17 17 14 8 7 7 7 6 8 9 9 12 18 19 19 22 26 27 28 29 26 26 25 24 27 28
9 9 8 8 8 8 9 10 10 10 10 11 10 8 7 8 8 8 8 8 10 10 11 12 14 16 21 22 23 24 24 22 22 22 23 23 24 24
6 5 4 4 4 5 5 6 7 7 6 6 6 7 8 9 9 9 9 9 11 10 11 12 13 15 17 17 18 19 20 23 25 25 25 25 24 25
4 3 2 3 4 5 6 7 7 6 7 8 7 7 10 10 9 9 10 9 6 12 10 11 13 14 17 17 18 18 19 20 21 22 23 24 25 25
3 3 3 4 5 6 6 7 7 7 8 8 8 8 9 10 10 10 10 10 9 13 15 11 11 10 12 14 16 17 18 20 21 22 23 23 22 21
3 4 4 4 5 5 7 8 8 8 7 7 8 9 9 9 9 9 10 11 10 11 10 6 7 6 8 10 9 9 10 11 13 13 13 14 14 15
5 5 4 5 4 6 7 7 8 9 8 7 7 8 8 9 8 9 8 8 6 6 7 5 7 10 8 6 6 5 6 7 10 12 13 14 15 16
5 4 5 6 6 5 6 6 7 8 8 7 8 8 8 8 8 7 6 5 4 4 5 7 8 10 6 7 5 14 10 11 11 11 14 16 17 19
5 6 7 8 8 6 4 6 6 7 7 7 7 7 7 6 6 6 6 6 6 7 11 10 10 11 10 14 12 11 9 10 13 14 15 17 18 20
6 7 8 8 8 7 7 8 7 7 8 8 7 7 7 7 7 8 9 10 10 11 13 13 15 14 14 17 16 14 14 15 15 14 16 17 18 21
7 8 8 7 7 8 8 9 8 9 9 9 8 8 8 9 9 11 12 13 13 12 12 13 14 15 16 18 21 22 20 18 18 12 10 17 19 21
9 9 8 7 7 8 9 9 9 9 10 10 10 10 10 10 10 11 11 12 14 12 12 13 14 16 18 20 22 25 23 21 20 21 21 23 24 24
11 10 9 8 9 9 10 10 10 10 10 11 11 11 12 12 12 12 13 14 14 14 13 14 15 17 20 23 27 26 24 25 24 22 24 26 24 22
11 10 10 10 10 11 11 11 11 11 12 12 12 13 13 14 15 15 15 15 16 16 17 17 18 19 20 22 23 23 22 24 25 24 23 26 27 23
13 12 12 12 12 12 12 12 12 12 13 14 14 14 15 16 16 17 17 18 19 19 20 21 21 21 20 22 25 28 25 19 24 25 25 26 29 28
15 14 14 14 14 14 14 13 13 13 14 15 16 16 17 18 19 19 19 20 21 22 23 24 23 21 22 25 26 30 30 30 25 29 29 29 32 32
17 17 16 15 15 15 15 14 14 14 15 16 17 18 19 20 21 21 22 22 24 25 26 26 23 23 26 28 33 34 30 28 29 29 29 30 34 36
18 19 17 17 17 16 15 14 16 17 17 18 19 20 20 21 22 22 23 24 25 26 27 27 25 25 26 29 34 34 32 29 26 28 29 29 32 34
20 19 19 18 18 17 16 17 18 19 19 19 20 21 21 22 22 23 24 25 25 26 26 27 26 25 27 28 29 31 31 31 31 32 31 27 28 30

GFSNE_850_spd_063.txt.gz
Wind_Speed
17 17 17 19 18 19 22 19 16 12 13 11 19 18 16 16 17 19 19 20 21 24 23 20 21 22 25 24 24 24 20 20 23 21 31 30 32 27
13 13 9 15 15 16 15 15 17 16 13 16 21 21 20 20 22 23 22 24 20 21 17 14 16 17 17 16 14 14 17 18 17 19 16 15 18 21
14 14 14 15 17 18 19 17 17 15 16 20 21 19 20 21 23 23 20 15 16 14 13 15 7 5 7 9 9 12 15 20 25 25 29 30 27 26
12 12 12 12 12 12 14 14 15 15 16 14 17 17 20 21 19 15 13 12 11 11 12 10 8 9 10 11 12 14 18 19 21 25 27 30 35 34
12 12 12 13 13 12 12 14 14 15 14 15 17 17 17 15 11 10 10 9 10 11 12 13 12 13 17 17 18 18 21 24 25 26 27 26 26 24
13 12 12 11 11 11 10 10 10 11 11 12 13 12 10 9 9 9 10 10 11 12 13 13 14 14 16 18 21 22 22 23 24 25 24 23 23 22
11 10 10 9 8 8 6 7 7 8 8 7 7 7 8 9 8 9 9 10 12 11 11 12 13 14 16 16 18 19 19 20 22 22 21 21 22 21
7 6 5 5 5 5 5 7 8 8 8 8 7 5 9 10 9 10 10 10 5 13 10 11 14 14 16 18 20 19 20 21 21 21 22 22 22 22
6 5 5 5 6 6 6 7 7 8 8 9 8 9 9 12 11 10 10 9 9 13 14 10 10 9 11 13 14 15 16 18 19 20 21 22 23 23
7 5 5 7 7 6 7 8 7 8 7 8 10 10 11 11 11 10 10 10 8 10 10 6 6 6 9 10 8 8 9 10 10 11 12 14 16 16
6 6 7 7 6 8 7 7 8 8 7 8 9 10 10 10 9 10 8 7 4 5 9 6 7 10 9 8 7 5 6 8 8 9 11 13 14 13
7 7 7 8 8 7 7 8 7 9 8 7 7 7 8 7 7 7 7 6 6 4 8 7 9 10 6 7 4 11 11 11 9 11 12 14 15 17
7 8 8 9 8 7 7 8 8 9 8 7 7 7 6 6 6 6 6 7 8 9 12 12 10 12 11 15 12 12 11 10 12 13 13 14 15 17
8 8 10 10 10 8 8 9 7 8 8 8 8 8 8 8 8 8 9 10 11 12 15 15 16 15 15 18 16 14 14 15 16 16 15 16 17 17
9 9 10 10 10 10 10 10 8 8 9 9 9 9 10 10 10 11 12 13 13 14 14 16 16 16 17 18 20 22 22 18 18 13 9 15 19 19
10 10 11 11 10 11 11 10 10 11 10 11 11 11 11 11 12 13 13 13 14 13 14 13 15 16 18 19 22 25 24 23 22 21 20 21 22 23
13 12 12 12 12 11 12 11 11 12 12 12 12 12 12 13 13 13 14 15 16 16 16 17 16 16 19 21 25 25 26 26 24 24 24 26 25 23
15 15 13 13 13 13 13 13 13 13 13 14 13 13 14 15 15 15 16 17 18 17 18 18 18 21 22 22 23 23 22 23 22 24 24 26 28 25
17 16 15 14 15 15 15 15 15 15 14 14 14 15 15 16 17 17 17 19 20 20 20 20 21 22 24 29 27 23 25 22 22 25 28 30 30 28
19 18 17 17 17 17 17 16 16 16 16 15 16 16 17 18 19 19 19 20 21 22 23 23 24 24 26 28 28 30 27 29 30 31 30 30 32 31
21 21 19 19 19 19 18 18 17 16 16 16 17 18 19 19 21 21 21 22 23 24 26 25 23 20 22 26 33 37 32 26 26 30 29 29 32 33
23 22 22 21 21 20 20 19 18 18 17 17 18 20 20 21 22 22 22 23 24 24 26 26 25 25 25 27 31 33 31 26 22 24 27 30 32 33
28 28 25 23 21 21 21 20 19 19 18 19 20 21 22 23 22 23 23 24 25 25 25 26 24 24 24 25 27 30 32 32 32 31 28 24 27 28

GFSNE_850_spd_066.txt.gz
Wind_Speed
21 18 18 17 17 19 18 20 20 18 16 15 19 20 16 16 17 18 18 20 21 21 19 18 12 15 18 19 19 19 18 16 12 16 17 19 21 26
16 12 11 13 16 15 16 15 17 16 9 14 19 17 18 20 19 18 21 21 19 16 16 11 10 8 7 5 3 5 6 7 15 21 17 21 30 33
13 13 14 15 15 15 15 17 18 20 20 20 19 21 21 19 18 20 20 16 13 10 11 12 7 3 4 3 4 5 7 9 8 11 13 15 16 19
13 14 15 15 16 15 15 18 20 18 16 16 17 17 17 17 19 18 13 11 10 11 12 9 8 5 6 6 7 7 8 11 13 14 14 16 18 18
14 13 12 13 13 14 15 13 13 12 13 15 17 18 15 15 14 11 8 9 9 9 11 11 10 10 11 12 14 16 16 16 18 19 21 22 22 22
15 15 14 14 13 13 12 12 12 12 12 13 11 11 10 8 9 9 10 11 10 10 11 12 12 11 11 13 15 18 20 22 23 22 23 23 23 24
14 14 13 13 12 11 10 9 9 10 10 10 9 8 8 8 6 8 10 10 11 11 10 12 13 12 14 15 15 15 16 17 19 20 20 20 19 20
10 11 9 8 7 6 7 9 8 7 9 9 10 8 9 9 10 9 10 10 8 10 9 9 13 13 13 15 15 16 16 17 18 19 19 20 19 19
9 8 8 8 6 6 5 5 6 6 8 9 10 10 12 10 11 11 12 11 9 10 10 7 8 7 9 9 8 9 10 10 11 13 15 17 19 20
9 7 8 7 6 5 6 6 6 5 7 9 10 10 11 11 11 10 10 10 9 8 6 4 5 4 6 8 6 6 5 6 7 7 8 10 11 13
6 6 8 6 6 6 7 8 7 6 7 8 9 10 9 10 10 10 10 9 6 6 5 6 5 7 8 6 4 5 4 8 8 9 9 10 11 12
7 7 7 8 7 8 9 8 7 7 6 7 8 7 7 8 8 8 8 7 5 5 4 6 8 9 5 5 2 9 9 9 8 8 10 11 13 14
7 7 7 8 8 8 8 8 7 8 7 6 7 6 7 7 6 6 6 6 7 8 11 10 9 12 10 13 10 12 11 9 10 12 13 13 14 14
8 8 8 8 8 8 7 7 7 7 8 7 7 7 8 8 6 6 7 9 9 11 13 13 15 14 15 18 16 13 12 13 14 14 15 14 15 15
9 9 9 9 8 7 7 7 7 7 8 8 8 9 9 9 9 9 10 10 11 12 13 14 15 16 17 19 19 19 19 16 14 8 12 15 17 19
11 11 11 10 9 9 9 8 8 9 9 10 10 10 11 10 10 11 12 13 12 10 12 12 14 15 16 17 20 21 21 21 20 20 21 19 18 19
13 13 12 11 11 11 10 10 9 10 10 10 11 11 12 13 11 12 12 13 15 14 13 14 15 15 16 18 22 22 22 23 20 19 22 23 21 20
16 15 13 13 12 12 12 12 12 12 11 11 11 12 13 13 13 13 14 15 16 15 16 15 17 19 21 22 22 20 21 23 20 20 21 24 27 23
19 17 16 14 13 13 13 14 14 14 14 14 13 13 14 14 15 15 16 17 18 18 18 18 18 19 22 27 24 20 24 20 22 26 26 25 28 28
21 20 18 16 15 15 15 16 15 15 15 14 14 14 15 15 16 17 17 19 20 20 21 20 21 21 24 26 27 26 22 26 25 28 29 28 28 27
22 22 20 17 17 17 17 17 17 16 16 16 15 16 16 16 18 18 19 20 21 22 23 23 21 20 19 22 28 33 30 26 23 25 26 28 31 30
24 25 22 21 19 18 18 18 18 18 17 17 16 17 17 18 20 20 21 22 22 22 23 23 22 22 23 24 29 30 27 23 20 21 23 26 29 30
33 32 30 27 31 29 20 21 21 17 19 17 17 18 18 22 22 22 23 22 23 23 24 24 23 23 24 25 25 27 28 28 28 29 26 19 23 24

GFSNE_850_spd_069.txt.gz
Wind_Speed
21 20 22 17 20 19 20 21 20 17 20 25 22 19 17 18 20 16 17 18 19 20 15 13 10 4 3 7 9 14 15 13 9 9 15 18 21 18
21 21 16 12 11 16 18 17 17 20 22 22 19 17 17 22 21 21 18 20 18 14 9 8 8 1 3 3 2 1 1 1 4 10 13 16 18 16
18 17 14 14 15 15 13 14 14 17 18 14 16 20 21 23 24 18 16 16 11 8 7 6 4 1 1 1 2 2 2 3 5 7 8 15 17 22
17 16 16 16 17 17 19 21 24 22 21 21 20 19 22 21 18 15 13 10 8 7 7 6 6 5 3 4 5 6 6 7 8 9 11 12 13 14
16 15 15 16 15 14 15 16 16 16 18 17 18 17 18 17 15 11 9 8 7 8 8 9 9 9 9 9 10 11 12 14 14 16 15 16 17 17
18 16 16 15 16 16 16 16 15 15 15 16 16 15 14 13 8 8 8 9 10 9 11 11 10 10 11 10 11 13 16 16 17 18 20 22 23 23
18 18 17 16 15 14 13 13 13 12 12 12 13 13 11 9 7 7 7 10 10 10 11 11 10 11 11 10 11 13 15 15 16 17 17 18 19 20
15 15 14 13 12 10 9 9 10 9 10 11 12 11 8 7 8 8 7 9 8 9 9 10 10 10 10 10 10 10 11 13 14 15 16 16 17 17
12 10 9 8 7 7 7 8 8 9 10 9 9 10 7 8 10 9 9 10 9 9 8 7 6 6 6 6 5 5 5 5 5 6 8 10 12 14
9 9 9 8 7 8 7 7 7 7 7 7 7 9 8 9 10 9 8 8 8 7 5 4 3 3 5 6 5 4 2 2 4 4 5 6 7 8
10 9 8 8 7 7 7 7 6 7 8 7 7 8 8 9 9 8 8 7 7 5 4 4 3 3 5 5 4 4 3 5 7 7 7 8 8 9
9 9 8 7 7 7 6 6 6 7 7 7 7 6 7 8 8 7 7 6 6 4 4 3 3 3 2 3 3 5 7 8 8 7 8 9 10 11
9 8 7 7 6 7 7 6 7 7 7 6 6 6 7 7 6 6 6 6 6 5 6 7 6 7 6 7 7 9 9 7 8 10 11 12 12 12
8 8 7 7 7 7 6 6 7 7 6 6 7 8 8 6 6 7 8 7 7 8 9 10 11 10 11 12 11 7 9 12 12 12 12 13 12 13
8 7 7 7 6 6 6 6 6 7 7 7 8 9 8 7 7 7 8 9 9 9 10 11 11 12 12 13 16 14 14 11 13 7 9 15 17 18
10 9 9 8 7 7 6 7 7 8 9 9 10 10 9 8 8 9 9 11 10 9 11 12 13 14 13 14 17 17 15 15 14 16 19 18 17 19
13 13 11 10 9 8 8 8 8 8 9 10 11 11 11 11 9 10 10 11 13 10 10 12 13 14 15 17 20 18 19 20 16 17 20 21 18 18
16 14 12 12 11 10 10 9 9 9 9 11 12 12 11 12 12 11 12 13 14 12 14 13 15 17 18 20 19 19 19 20 19 18 18 22 25 21
19 16 15 13 12 11 10 11 11 9 12 13 13 12 12 12 13 13 13 14 15 16 16 16 17 18 20 24 25 22 18 20 20 20 21 24 28 24
20 18 15 14 14 13 12 13 11 13 15 15 15 14 13 13 13 13 14 15 17 18 19 18 19 19 21 22 24 27 24 24 23 25 25 25 27 26
20 19 16 17 16 15 14 16 17 16 16 15 15 15 13 14 15 15 15 16 18 19 20 19 18 19 19 19 25 27 23 23 24 23 21 24 27 29
21 22 21 20 23 24 27 22 19 18 17 18 16 14 15 16 16 16 16 18 18 20 21 20 19 20 20 22 26 27 24 19 17 18 20 23 26 29
26 25 23 24 26 26 25 25 26 25 26 21 18 18 19 21 19 18 17 19 20 21 21 21 20 20 22 24 24 26 25 23 22 23 23 20 21 24

GFSNE_850_spd_072.txt.gz
Wind_Speed
23 24 25 22 24 23 24 23 23 18 20 18 19 20 24 20 16 15 20 19 21 20 18 14 11 4 3 4 7 4 10 11 11 12 15 16 20 18
22 22 22 22 20 19 18 19 21 22 21 15 20 22 23 17 14 17 21 23 21 18 14 8 8 2 6 4 4 4 5 5 8 8 11 16 22 20
21 21 21 19 18 15 14 14 19 21 21 20 13 17 15 13 20 22 24 16 15 12 10 7 5 3 3 4 4 4 5 4 4 8 11 14 17 16
20 21 21 19 17 17 18 18 20 20 17 18 16 17 20 21 21 23 16 14 11 9 9 7 6 5 5 5 6 7 6 5 6 6 7 9 12 16
20 20 18 17 18 19 19 20 20 21 23 23 21 20 20 20 19 17 12 9 8 9 10 9 8 8 8 9 10 11 10 9 9 10 11 13 13 14
20 19 19 18 18 17 17 18 18 17 16 17 19 18 19 18 15 10 10 8 9 10 11 10 10 10 10 10 11 14 14 15 15 15 15 18 18 19
20 20 20 19 19 18 18 18 18 17 15 16 17 17 17 15 10 9 10 9 10 11 12 10 10 10 10 12 13 14 15 16 16 18 19 20 20 20
19 19 19 19 18 17 15 14 13 12 12 13 14 14 12 11 8 8 8 8 8 11 11 10 10 10 9 10 10 11 12 13 14 15 16 17 17 18
15 15 14 11 10 9 9 9 10 9 10 11 10 10 11 9 9 9 9 10 9 11 10 8 8 7 6 5 4 4 4 4 5 7 8 10 12 13
14 14 11 10 9 9 8 8 9 7 7 8 9 10 10 10 11 10 9 9 9 9 7 5 6 5 5 5 5 5 4 3 3 3 3 4 5 6
14 12 10 9 9 8 8 8 9 8 8 8 9 10 9 10 10 9 8 8 9 7 6 5 6 5 6 6 6 5 6 6 5 6 6 7 7 7
12 12 10 9 9 8 8 9 9 8 8 7 7 7 7 7 7 7 7 8 7 6 5 5 5 4 3 6 6 5 7 9 8 8 8 9 9 10
12 11 10 9 9 9 9 9 9 8 8 7 7 7 7 7 7 6 6 7 6 7 5 6 6 6 6 5 8 9 10 11 9 10 11 12 13 14
10 10 9 8 8 8 7 8 8 7 8 7 7 7 7 7 7 7 8 8 8 8 8 9 10 9 10 10 9 8 9 11 13 13 14 15 16 16
12 11 10 9 9 8 7 7 7 7 7 7 8 8 8 8 8 9 9 9 9 10 10 10 10 10 11 12 13 11 11 10 14 15 15 14 15 18
13 12 11 10 9 9 9 9 8 8 8 8 8 8 8 8 9 9 10 11 10 10 11 11 12 13 13 14 17 15 13 11 9 14 20 20 19 19
14 15 14 12 11 11 10 10 10 9 9 8 9 9 10 10 10 12 11 12 10 9 11 13 15 15 16 17 20 18 17 19 16 17 20 21 19 20
19 18 16 15 14 13 12 12 12 10 10 10 9 10 11 12 13 13 13 13 13 12 12 13 16 17 19 20 19 19 18 18 18 19 19 21 22 20
23 19 18 16 15 14 13 13 13 12 12 13 12 12 15 15 16 14 14 15 15 15 15 16 16 17 19 23 22 21 20 15 18 20 21 23 25 24
24 21 18 16 16 16 16 15 14 13 13 14 14 14 15 16 17 16 15 16 16 16 17 17 18 18 20 21 24 25 22 21 22 23 25 24 26 24
22 20 18 16 16 16 17 17 18 16 19 21 18 16 17 19 18 17 15 17 17 17 17 17 16 20 21 21 24 24 24 23 23 23 21 23 25 25
21 20 19 20 22 21 22 21 23 27 25 20 21 19 19 20 19 18 20 21 20 19 18 18 18 19 20 22 24 24 24 23 20 18 18 21 23 26
26 27 25 24 24 23 26 27 27 26 22 24 24 24 24 24 23 22 22 21 20 19 17 18 18 19 20 21 22 24 25 24 22 20 19 18 21 24

GFSNE_850_spd_075.txt.gz
Wind_Speed
25 25 24 22 23 21 21 24 22 20 17 20 19 18 22 21 20 18 18 13 18 21 23 18 13 8 4 3 2 4 4 5 9 13 15 15 21 25
24 22 23 23 21 20 20 19 21 23 23 22 21 23 20 22 22 20 16 16 23 24 20 14 10 9 8 6 6 6 3 2 2 7 14 17 19 25
24 24 22 22 20 18 18 14 15 19 23 24 22 20 22 21 19 16 17 21 25 18 16 10 9 6 6 7 7 5 5 3 3 6 8 13 17 19
23 23 21 20 19 17 16 18 18 18 16 13 13 16 17 16 17 19 21 23 16 14 11 9 9 8 5 6 8 8 7 5 5 9 13 13 13 13
23 22 20 20 19 17 17 17 19 21 23 24 23 19 20 19 20 21 22 16 12 11 9 9 9 10 9 9 10 10 10 10 10 10 9 11 11 12
22 21 20 20 20 18 18 19 18 19 19 18 18 19 19 19 21 22 16 11 11 11 11 11 11 11 11 12 13 15 15 15 15 15 14 15 16 17
21 21 21 21 20 19 18 18 19 19 21 17 17 18 19 20 19 16 13 12 12 13 12 12 12 11 11 12 14 14 15 17 18 19 19 19 20 21
20 20 19 18 18 18 18 18 17 16 15 14 14 16 16 16 13 12 11 11 11 13 13 12 12 11 11 12 12 13 13 15 16 18 18 19 20 20
16 16 15 15 14 11 10 10 10 11 11 13 13 13 12 11 11 11 11 11 12 12 10 11 11 10 9 9 8 7 8 8 9 10 12 14 15 16
14 14 14 12 10 9 9 9 8 8 8 9 11 12 12 11 11 11 12 11 11 11 11 9 9 8 8 8 8 8 7 6 5 4 5 6 7 7
13 13 13 10 10 9 9 10 10 9 9 8 10 10 11 10 11 11 10 10 9 9 9 8 7 8 8 9 9 9 8 7 5 5 7 7 8 8
14 13 11 10 11 9 8 9 10 9 9 9 7 7 7 8 7 8 9 9 8 6 9 9 7 6 5 9 9 9 9 8 9 9 9 10 10 10
10 9 9 10 10 10 10 9 10 10 10 8 8 7 7 6 6 6 7 7 8 8 5 7 7 9 8 6 8 10 11 11 11 12 11 12 14 15
10 10 11 11 10 10 9 10 10 9 9 9 8 7 7 7 7 7 7 7 8 9 9 10 11 11 12 12 12 11 13 14 13 13 15 16 17 17
13 12 13 12 11 9 9 8 9 8 8 8 7 7 7 8 8 7 8 9 10 10 11 12 12 12 12 13 14 12 12 14 16 15 16 19 19 19
15 14 13 12 12 11 11 10 9 9 9 9 8 9 9 9 9 9 9 10 11 12 13 13 14 13 14 15 17 16 13 11 10 11 15 17 19 22
16 16 16 16 14 13 12 11 11 11 11 10 10 10 10 10 11 11 12 13 13 13 13 14 15 16 16 17 20 18 16 17 15 18 22 23 20 21
21 21 19 17 17 14 14 13 13 13 12 12 11 11 12 12 12 14 15 15 15 14 14 15 17 19 19 19 19 19 18 17 14 19 20 21 21 19
25 23 21 19 17 16 15 15 14 13 14 16 15 13 14 16 16 15 16 17 17 16 15 16 16 18 19 22 20 21 21 16 15 15 18 23 25 23
28 26 21 19 18 17 17 16 15 15 17 17 17 14 15 16 18 17 17 18 18 18 17 17 18 17 19 20 23 23 22 22 19 20 22 24 25 23
27 25 20 18 18 17 18 17 17 17 18 18 17 18 19 20 19 17 18 20 19 19 18 20 20 20 19 22 24 22 21 21 21 21 22 24 25 23
26 25 22 20 19 18 18 19 20 20 22 23 25 24 17 21 21 18 19 20 20 21 22 21 20 19 21 22 23 22 21 23 22 20 20 22 23 23
26 25 23 22 24 25 24 24 25 25 25 27 25 22 21 22 21 23 23 23 24 22 22 21 20 20 21 21 22 23 22 23 25 24 20 18 19 22

GFSNE_850_spd_078.txt.gz
Wind_Speed
22 21 22 21 21 20 20 20 18 17 16 16 17 18 18 19 19 21 19 19 16 17 18 21 19 12 5 5 4 4 5 6 7 10 14 16 20 24
23 22 22 21 20 19 19 18 18 18 18 17 18 20 21 22 22 21 21 20 19 18 23 20 15 10 10 11 8 7 7 4 2 7 7 15 16 19
22 22 21 21 20 19 19 18 15 15 20 24 22 20 20 21 20 22 20 17 19 26 22 16 12 9 8 9 8 6 5 4 4 3 5 8 13 13
22 22 20 20 19 18 18 17 16 17 20 19 15 14 20 23 22 18 16 18 23 23 16 14 11 11 9 7 7 8 7 5 3 8 8 11 14 17
22 22 21 19 19 18 17 16 17 17 19 21 22 22 21 19 18 18 20 23 24 16 12 11 10 11 11 9 9 10 9 10 8 7 10 14 13 13
21 20 19 18 18 17 16 16 17 19 20 21 21 20 20 21 20 21 21 22 15 13 12 11 11 12 13 12 12 14 14 13 12 12 12 12 14 14
23 20 18 17 17 17 18 17 18 18 19 21 20 19 19 20 19 19 19 18 15 14 13 13 12 12 13 13 14 14 15 16 16 17 17 17 17 19
17 16 16 15 15 14 15 16 17 17 17 16 16 17 18 19 18 19 17 14 13 14 15 14 13 12 13 12 12 13 13 14 16 17 19 19 20 21
15 12 13 13 13 13 12 9 11 12 13 14 14 14 16 16 13 13 12 12 12 12 10 10 10 11 11 11 11 9 9 10 11 13 14 16 18 19
12 12 12 12 12 10 8 8 8 8 8 9 11 13 12 13 11 11 11 12 12 13 12 10 10 9 9 9 9 8 7 6 6 6 7 9 10 11
13 12 12 12 12 11 10 10 9 8 8 8 8 8 10 10 10 11 11 11 11 11 10 9 7 7 8 8 9 8 8 7 7 6 6 7 8 8
13 12 13 13 12 10 8 9 9 9 9 8 7 7 7 8 8 9 10 10 10 8 9 9 6 6 4 8 9 9 9 9 9 9 9 9 10 9
11 12 12 10 10 10 9 10 10 11 9 9 8 6 7 6 6 7 7 7 7 8 6 7 6 7 7 5 5 9 10 10 11 12 12 13 13 12
10 10 11 11 12 12 10 10 11 9 9 9 8 6 5 5 6 6 6 6 6 7 8 8 9 9 9 10 9 8 11 14 15 15 15 15 16 16
13 13 13 13 13 12 11 10 10 8 9 7 6 7 7 7 7 6 7 7 7 8 9 10 11 12 12 13 13 11 11 13 15 15 17 19 19 18
16 16 15 15 14 13 13 11 9 9 9 8 8 8 8 7 7 7 7 8 10 10 11 13 13 13 13 12 14 13 12 12 11 12 15 17 17 17
18 18 19 17 17 15 13 12 11 11 10 9 10 9 9 8 8 9 10 12 11 11 12 13 13 13 13 14 15 14 14 16 16 18 21 21 21 21
23 22 21 19 18 16 14 13 13 12 11 11 11 11 11 11 11 13 13 13 13 14 14 14 15 15 15 14 14 15 15 15 14 16 18 20 22 20
27 25 23 22 19 17 16 15 14 13 14 15 13 13 13 13 13 13 14 15 16 16 15 16 16 16 17 18 18 18 18 16 16 15 16 19 21 22
27 28 25 21 19 18 17 16 15 15 16 15 15 14 14 14 15 14 16 17 16 17 18 18 17 15 16 18 21 22 19 19 20 19 18 20 22 22
27 28 24 19 18 17 17 17 17 17 17 17 16 16 16 17 18 20 18 19 18 18 19 17 14 17 18 21 23 22 18 19 20 20 21 22 24 25
27 26 25 20 18 17 17 18 19 19 19 20 20 20 20 23 24 19 19 19 19 19 18 17 18 18 20 21 22 21 20 20 20 19 19 21 23 25
26 25 24 21 20 19 19 21 23 24 25 24 22 22 23 26 23 21 20 21 22 22 21 21 20 20 20 20 20 21 21 21 22 22 20 19 21 23

GFSNE_850_spd_081.txt.gz
Wind_Speed
19 19 18 18 19 19 19 17 16 10 13 14 14 15 15 16 17 20 18 19 18 20 19 20 21 21 12 10 7 7 8 7 6 7 15 16 24 25
19 18 18 18 19 18 18 19 18 17 17 15 16 14 17 19 18 19 21 19 19 19 17 20 24 14 12 14 14 12 12 12 9 10 4 14 17 22
18 18 18 19 18 18 18 18 18 17 18 20 18 18 18 19 18 19 19 18 20 18 18 25 20 13 12 12 15 12 9 9 7 3 3 5 14 17
19 18 18 19 17 17 17 17 17 16 18 18 19 17 14 14 18 20 22 19 16 17 22 23 16 14 13 11 8 9 9 9 6 8 5 4 12 15
18 18 19 18 18 17 17 17 16 17 18 20 20 20 20 19 19 19 18 17 17 20 23 16 12 12 13 10 10 10 11 10 8 7 10 9 10 15
19 19 19 19 19 18 18 17 16 18 20 21 22 22 21 21 21 21 21 19 18 22 17 13 11 11 13 11 13 13 13 13 11 10 9 12 11 12
19 20 21 21 17 16 16 17 18 19 20 20 20 20 20 19 19 19 20 18 19 19 14 14 13 13 13 13 14 15 15 15 16 16 14 15 15 12
17 17 16 14 13 13 14 15 17 20 21 21 20 19 17 17 18 18 17 18 18 13 14 15 14 14 14 14 13 14 14 15 16 17 18 20 19 19
16 16 12 11 11 12 13 14 14 13 15 16 16 15 15 15 16 17 17 16 15 11 9 9 11 12 12 12 12 11 10 12 13 15 17 19 20 20
14 13 9 10 11 11 11 11 10 9 8 9 12 14 15 14 13 13 13 12 11 12 11 11 11 11 11 10 10 8 7 7 6 7 9 12 14 15
12 11 10 11 12 12 11 11 10 10 9 8 8 8 9 10 11 10 10 10 12 11 10 10 9 7 8 9 9 8 8 8 7 7 6 7 7 7
13 13 13 13 13 13 11 10 10 10 9 9 7 7 7 8 8 9 9 9 10 8 10 9 7 5 4 8 9 8 9 9 9 9 8 8 8 8
12 13 14 14 14 12 11 11 10 10 10 9 9 8 7 7 8 8 8 8 8 9 4 5 6 7 6 4 4 7 9 10 10 10 11 12 11 11
12 13 15 16 15 14 11 12 11 10 11 11 10 9 8 9 8 7 7 7 8 7 7 8 7 6 6 7 8 7 9 10 12 13 14 15 14 13
14 14 14 15 15 14 13 12 11 9 11 11 10 10 10 10 8 8 7 8 6 6 7 8 9 9 9 11 10 9 9 11 12 13 14 16 16 17
16 16 17 16 16 14 15 13 12 10 10 10 10 10 9 8 8 8 9 8 7 7 8 11 11 11 10 11 11 9 10 10 10 12 14 15 16 17
16 19 21 21 20 18 17 16 14 13 12 11 11 10 11 11 10 10 9 7 8 8 9 9 10 10 10 11 11 9 10 13 14 16 19 19 20 20
24 24 23 21 21 19 18 17 16 14 13 13 13 12 12 11 11 11 10 9 10 11 11 11 11 12 13 11 11 10 12 14 15 16 18 20 21 20
28 26 24 23 22 20 19 18 17 14 14 15 14 14 14 14 14 12 12 12 11 13 13 13 13 13 15 17 14 13 14 15 15 16 17 19 20 22
28 27 27 25 24 22 20 19 18 17 18 17 16 15 15 16 15 14 14 13 14 15 15 14 14 14 15 16 16 16 17 17 18 19 19 19 21 21
27 27 25 24 23 21 20 20 19 19 19 19 18 17 17 17 17 16 15 17 18 17 16 14 12 15 16 17 19 19 16 17 18 18 20 21 21 22
26 25 23 21 21 20 20 20 20 21 21 20 19 18 18 19 20 19 19 19 19 17 16 14 15 16 17 19 19 20 20 19 17 18 20 20 20 21
23 24 23 22 20 19 20 21 20 20 21 20 21 22 22 23 22 22 21 20 19 19 19 18 19 20 19 19 19 20 19 19 20 20 20 19 21 24

GFSNE_850_spd_084.txt.gz
Wind_Speed
22 20 19 19 19 19 19 18 16 8 11 10 9 11 12 14 15 15 18 21 18 17 20 19 20 20 20 15 10 11 12 11 9 10 9 17 20 28
22 20 19 21 20 21 20 19 18 15 14 11 13 15 16 15 18 18 17 19 19 21 19 19 17 18 20 16 16 16 16 15 13 14 13 9 16 20
21 20 21 20 20 20 20 20 21 20 20 21 21 17 16 17 17 18 18 19 20 18 18 18 17 21 18 15 13 14 17 16 15 11 8 10 6 15
20 21 21 19 20 21 21 20 21 19 19 20 20 18 16 16 16 17 18 20 18 19 17 16 20 21 17 13 11 10 13 11 9 11 3 4 5 8
21 20 21 21 21 21 22 22 21 20 18 20 22 19 18 17 18 19 18 18 17 16 16 19 22 18 15 11 10 9 9 10 10 8 9 4 7 12
21 21 22 22 21 21 22 22 23 21 19 20 22 21 19 19 20 20 21 21 18 17 18 19 18 14 12 10 11 12 12 12 12 10 9 10 10 10
20 21 21 22 24 24 24 23 20 19 19 21 22 21 20 19 19 18 18 18 18 17 18 20 16 14 13 12 13 13 14 14 14 14 13 12 12 12
20 20 20 21 21 21 20 18 19 20 20 21 20 22 21 20 19 18 17 16 16 18 19 18 15 16 15 14 14 14 14 14 14 15 17 18 16 16
19 18 17 17 16 16 14 15 15 16 17 17 20 19 18 16 15 16 16 16 18 18 12 11 11 13 14 14 13 12 12 11 12 14 16 17 19 20
17 16 16 13 13 13 13 13 13 12 11 11 14 15 15 14 14 14 14 16 16 15 13 12 11 12 12 12 11 10 8 7 7 8 11 13 16 18
15 15 14 12 11 12 13 12 12 12 11 10 9 9 11 12 12 12 13 13 13 12 12 12 10 9 9 10 9 8 7 7 6 6 6 6 8 9
16 15 15 13 13 14 14 15 14 13 12 10 8 8 9 10 11 12 12 12 12 9 10 12 9 6 5 9 9 8 8 8 8 8 7 6 7 7
17 16 16 15 17 17 16 16 14 13 13 11 10 10 9 9 10 10 10 10 11 11 6 8 7 9 7 4 5 7 8 8 8 9 10 9 9 9
17 16 16 17 19 19 16 15 15 14 13 13 13 12 11 11 11 9 8 9 9 10 9 8 8 8 8 7 6 6 8 9 9 9 11 12 13 13
18 16 16 17 20 18 16 16 16 14 14 14 14 13 12 12 10 10 9 9 7 7 7 9 8 8 9 10 10 8 9 8 10 11 12 13 14 14
20 16 16 17 18 18 19 18 18 15 14 14 14 14 12 11 11 11 10 9 8 8 8 8 9 10 12 13 11 10 10 9 6 9 11 13 14 14
19 20 20 22 22 22 22 19 19 18 17 16 15 14 13 13 13 12 11 11 10 9 9 9 10 12 13 13 12 11 11 11 12 14 15 16 17 18
26 26 25 25 25 25 24 23 23 21 18 17 16 16 15 14 14 13 13 13 12 11 11 11 11 12 13 12 13 13 13 12 13 14 16 18 19 20
31 29 29 26 26 26 25 25 23 21 18 18 17 16 15 15 16 16 14 14 13 13 13 13 13 13 13 13 14 12 13 14 14 15 17 19 21 21
31 30 31 30 29 27 27 26 24 23 21 20 19 18 17 17 17 17 16 15 14 14 15 15 15 14 14 16 16 16 13 14 17 18 19 20 20 21
31 31 30 31 29 28 28 25 24 23 22 21 20 19 18 18 18 19 18 16 17 17 17 16 14 15 17 18 20 17 16 16 16 17 19 20 20 20
30 29 28 28 26 26 28 25 25 25 25 24 22 20 19 19 19 19 19 19 20 18 17 16 17 18 18 19 20 19 20 19 17 18 19 19 19 18
29 26 25 26 25 24 26 26 25 25 25 23 22 21 20 20 19 20 21 21 21 20 19 18 19 21 20 21 21 22 21 20 19 18 19 18 18 21

GFSNE_850_spd_087.txt.gz
Wind_Speed
26 23 19 19 19 20 19 19 18 14 9 8 11 15 14 11 12 13 14 14 16 17 19 17 16 19 19 16 17 15 13 13 13 13 13 11 13 20
28 25 23 21 20 19 19 20 19 19 14 13 16 18 15 15 14 17 17 16 16 16 16 18 18 18 18 17 19 18 17 16 17 18 16 18 12 13
26 25 22 21 21 21 21 22 21 20 19 19 22 22 20 18 15 17 16 15 16 16 18 18 18 17 16 20 19 17 15 15 17 17 16 14 19 13
25 24 22 22 21 22 22 22 22 21 20 18 21 18 19 16 17 16 16 16 16 17 17 17 16 15 17 21 16 12 12 13 11 9 8 4 7 7
26 25 24 23 23 24 23 23 22 21 20 20 19 19 17 17 17 17 19 19 20 17 17 15 15 17 20 17 10 10 9 7 9 9 9 6 1 6
27 26 25 24 23 23 24 23 20 19 19 20 18 21 19 19 18 19 19 20 20 19 17 17 17 18 19 13 9 10 11 10 10 9 8 10 10 1
26 24 25 24 23 24 24 22 22 22 21 20 19 21 21 21 20 18 17 17 18 17 16 16 17 18 16 13 12 12 12 12 11 12 12 12 11 10
24 24 24 24 24 24 24 25 25 22 22 21 20 22 21 20 19 19 19 17 16 16 16 16 17 16 15 14 13 13 12 12 11 13 13 14 15 13
23 23 23 21 21 21 22 21 19 17 17 20 20 22 21 20 17 17 15 14 16 15 14 13 13 13 13 13 13 11 10 10 10 11 12 13 16 18
23 23 21 21 20 20 17 17 16 15 16 19 17 15 19 15 15 14 12 14 15 15 15 14 12 12 11 11 11 9 8 6 6 6 9 11 13 14
22 23 22 21 18 17 15 13 14 16 14 13 12 12 12 13 14 14 16 13 13 12 11 12 10 10 9 9 8 7 6 5 5 4 3 3 5 8
23 23 21 20 17 16 14 15 15 16 14 12 11 11 12 11 11 13 13 12 13 9 9 11 9 7 4 8 7 7 6 6 5 5 4 4 3 4
22 22 21 19 18 18 16 17 15 17 14 13 13 11 12 10 12 12 12 13 13 13 6 7 7 8 8 2 3 6 7 7 6 6 7 6 6 5
23 21 20 19 19 18 18 19 19 18 17 15 15 14 13 13 11 12 11 11 11 10 10 8 8 7 8 6 4 4 5 6 7 8 8 7 8 9
24 21 21 18 18 18 19 21 20 20 19 17 17 16 15 13 13 12 12 11 9 9 9 9 9 7 8 8 7 7 8 8 9 10 10 10 10 9
25 24 21 18 18 20 22 23 22 22 20 18 17 17 16 15 15 14 13 11 10 10 10 9 8 8 10 11 11 11 10 8 5 8 8 8 8 9
28 25 24 24 23 23 25 25 25 23 22 20 19 19 18 17 17 15 14 13 13 12 10 8 8 9 9 10 11 11 11 11 12 11 11 12 12 12
31 32 29 29 27 25 26 28 25 25 24 22 20 19 19 17 16 15 14 15 14 13 10 9 9 10 10 10 11 12 12 12 13 12 13 14 14 14
32 33 34 33 30 29 28 28 28 26 22 22 22 21 20 18 18 17 17 17 16 13 12 11 11 11 12 12 10 8 9 11 13 14 15 15 16 16
34 34 36 35 33 31 28 28 28 27 25 25 24 23 21 20 19 18 18 18 16 15 15 13 13 13 13 14 13 11 11 13 14 15 17 18 18 17
36 34 33 34 34 32 31 29 29 28 26 27 26 24 22 21 20 20 19 18 17 17 17 15 12 14 16 16 17 15 14 14 15 16 18 19 18 19
36 36 35 34 32 30 30 30 30 29 28 28 27 24 22 21 21 20 19 20 19 18 16 16 17 16 16 17 17 16 17 18 17 17 18 18 17 16
36 36 37 34 29 27 26 28 29 30 29 28 27 25 24 23 21 20 19 19 19 18 18 19 18 18 18 18 18 18 19 19 18 18 18 16 16 16

GFSNE_850_spd_093.txt.gz
Wind_Speed
27 26 20 16 19 17 19 23 21 22 21 21 21 21 20 17 15 13 13 14 14 15 16 17 19 19 17 17 17 16 16 19 20 21 21 21 22 23
24 23 21 18 25 21 25 28 26 24 23 18 20 22 19 19 16 15 16 16 16 17 16 16 18 18 18 17 15 15 15 18 21 20 20 21 22 23
23 30 28 26 26 25 25 26 27 26 26 24 22 21 22 21 20 20 18 17 16 13 12 14 15 16 17 17 18 18 18 20 19 17 17 16 14 16
33 30 31 28 28 30 26 28 28 26 25 24 25 24 24 23 23 21 19 16 15 13 12 13 16 16 16 15 15 16 18 19 15 13 13 10 8 10
30 29 33 31 32 29 29 28 27 25 24 24 24 25 27 23 22 21 18 17 15 14 13 14 16 16 16 16 16 17 18 13 11 11 12 10 9 8
29 31 34 33 30 28 30 29 27 25 25 24 23 23 23 23 22 20 20 17 16 16 16 17 17 17 18 19 17 18 15 13 10 12 12 11 11 8
30 30 27 28 28 29 28 28 28 27 26 24 23 24 25 23 21 19 18 16 17 17 17 17 17 17 18 17 17 18 15 13 12 12 14 12 12 10
27 27 26 28 28 28 28 28 28 27 26 26 26 24 23 21 20 18 19 18 18 16 18 18 17 17 18 17 18 16 15 13 13 13 13 13 11 12
26 26 28 28 28 28 28 28 28 29 28 26 26 25 24 19 19 20 19 18 18 17 15 13 15 14 17 18 15 12 12 12 12 12 11 12 11 12
21 24 26 26 27 27 27 28 27 27 26 24 23 21 20 18 19 19 18 18 18 17 15 15 15 15 16 16 14 11 9 10 9 10 10 11 10 10
23 24 25 25 26 27 27 28 28 27 26 25 22 21 19 17 18 20 20 21 19 18 18 17 17 12 13 14 14 12 9 8 7 7 4 5 6 8
26 28 28 27 27 29 29 27 27 26 26 22 21 19 17 17 19 18 18 20 19 14 16 17 14 11 7 14 14 10 9 5 7 7 6 5 3 3
30 30 29 28 29 31 29 27 25 22 22 21 20 20 19 19 18 17 17 17 16 14 7 12 13 14 12 5 10 11 9 9 10 8 6 5 5 5
30 29 29 28 29 30 28 25 23 23 24 22 22 22 21 20 17 16 16 16 15 14 14 12 12 9 13 12 6 9 9 9 9 8 8 8 8 7
30 30 29 28 28 29 27 25 24 25 25 24 25 24 21 18 18 18 17 16 16 15 17 16 15 11 12 14 10 8 8 8 8 9 9 9 9 9
31 30 26 26 28 29 27 27 28 27 26 24 23 21 23 23 21 19 17 16 18 16 17 18 16 15 13 13 11 10 9 7 8 10 11 10 10 10
25 32 30 28 30 30 30 32 31 29 28 27 25 27 27 24 22 20 19 19 19 17 18 18 16 17 15 13 12 11 11 12 12 12 10 9 9 9
20 30 34 33 32 33 35 36 35 32 31 29 28 30 28 25 23 22 21 20 18 18 19 18 17 16 14 13 11 12 12 12 13 12 12 10 11 11
22 28 32 35 34 34 35 36 37 34 32 30 29 30 29 25 24 24 23 21 22 21 20 19 19 17 15 14 10 10 11 12 13 13 13 12 12 13
24 27 32 31 34 35 36 35 35 33 31 30 29 28 27 27 27 26 25 24 23 22 21 20 20 16 14 12 11 9 11 12 12 12 12 13 14 14
24 26 30 33 36 35 31 33 35 32 31 30 30 28 29 28 28 26 24 23 21 21 22 22 15 13 17 16 12 10 11 12 12 12 13 14 15 15
19 23 26 29 31 31 32 29 30 30 32 30 31 30 27 27 30 27 25 24 24 22 20 18 17 19 18 15 10 12 14 14 14 14 14 14 15 11
18 19 21 25 25 26 28 27 28 30 33 31 28 29 28 29 30 27 25 23 21 20 19 20 20 20 17 16 16 15 16 15 16 17 17 16 18 17

GFSNE_850_spd_096.txt.gz
Wind_Speed
33 34 33 33 33 30 33 37 36 28 22 20 20 23 22 20 17 16 14 13 13 16 16 18 21 20 19 20 21 21 21 20 19 20 21 23 23 24
26 31 33 35 32 27 20 27 32 24 15 18 24 24 20 19 19 18 16 16 16 18 19 19 20 19 21 20 20 20 19 19 20 22 22 22 21 21
30 27 24 24 20 20 22 24 25 24 22 22 22 21 20 21 20 19 19 19 19 19 20 20 18 16 17 18 18 20 20 20 20 20 22 20 17 12
33 33 27 25 27 26 34 29 28 27 28 27 26 23 24 23 22 21 23 21 18 18 16 15 14 16 18 18 18 17 17 18 19 20 18 16 13 10
29 28 31 35 37 35 35 34 33 29 29 29 27 27 27 26 26 25 25 19 18 18 15 14 15 16 17 17 18 17 18 19 22 19 15 13 11 11
27 28 28 29 31 35 42 37 32 32 30 29 28 28 28 27 26 27 24 21 19 17 16 16 16 17 18 18 18 19 19 20 19 16 15 13 13 12
26 28 28 29 30 34 33 38 33 32 31 31 30 30 29 31 31 25 23 20 20 19 17 16 16 17 17 17 17 19 20 20 15 15 15 14 13 12
25 27 29 30 31 31 29 27 31 33 34 32 31 30 31 29 27 24 23 21 22 19 19 17 17 17 18 18 18 19 21 17 15 14 14 13 12 11
25 26 27 28 27 28 30 31 31 32 29 28 28 28 32 28 24 25 23 22 20 18 15 15 16 17 18 19 18 19 17 15 14 13 13 12 11 11
24 25 26 26 27 29 29 30 30 29 30 30 29 26 27 26 26 22 19 19 21 19 19 19 17 16 18 18 19 17 15 12 11 9 9 11 9 9
24 25 26 26 27 28 28 29 29 30 29 28 28 27 27 26 24 24 27 25 24 21 19 19 17 17 18 19 18 17 14 11 9 8 4 5 7 7
24 25 26 26 25 27 28 28 29 29 30 29 29 29 26 24 23 22 21 24 22 18 20 21 19 13 11 19 18 15 12 10 8 8 5 4 4 3
25 27 27 27 28 29 29 30 29 25 27 28 27 25 24 23 23 22 21 20 20 19 11 19 18 17 16 5 11 14 13 11 9 8 6 6 6 5
25 26 26 27 29 29 30 29 28 27 28 27 28 28 27 26 24 21 21 20 20 19 17 13 15 14 18 17 8 12 12 12 10 9 8 9 9 6
22 25 24 24 24 29 31 30 28 30 30 31 31 29 26 22 22 23 22 22 22 20 21 21 18 15 14 17 14 8 12 12 10 10 10 11 10 9
18 23 24 23 22 24 28 31 31 31 32 33 30 25 23 27 27 24 22 22 22 22 21 21 21 19 16 17 16 12 12 9 9 10 11 11 10 11
19 19 20 22 26 23 28 31 32 31 33 32 28 26 28 28 27 25 23 23 24 24 22 23 22 19 19 17 17 16 14 11 10 10 10 11 12 11
19 22 22 22 23 27 29 32 34 34 35 34 32 30 30 29 28 26 25 25 24 23 22 22 21 21 21 19 19 16 14 11 12 12 13 13 13 12
21 22 23 24 24 25 25 31 33 36 36 37 34 33 31 28 28 28 27 25 25 24 22 22 22 23 22 23 18 16 13 12 13 13 13 13 13 13
18 20 23 24 25 27 27 28 29 31 36 36 34 31 31 29 30 29 28 27 25 24 24 23 24 22 22 18 15 14 12 13 12 12 14 14 14 13
19 19 21 21 22 26 25 27 25 25 30 31 34 34 31 29 31 28 27 26 24 25 25 25 21 19 21 20 17 15 12 12 12 13 14 13 14 15
21 19 19 20 19 20 23 24 24 26 31 31 29 30 30 29 31 27 26 26 26 25 24 22 22 24 24 22 18 16 13 13 14 15 14 13 11 8
20 18 19 19 18 17 18 21 23 25 26 24 27 29 29 30 29 28 26 25 25 25 25 23 25 26 24 21 19 18 16 15 15 16 14 13 14 15

GFSNE_850_spd_099.txt.gz
Wind_Speed
37 32 32 34 37 40 42 46 43 29 36 39 36 41 31 27 22 19 17 16 15 14 16 17 20 20 19 22 19 16 20 18 21 20 19 20 20 21
37 40 38 38 39 43 44 38 40 39 27 40 37 30 27 23 22 20 18 17 16 16 17 18 19 20 20 19 18 19 19 19 21 21 19 19 20 21
33 30 30 30 31 32 33 42 29 30 22 23 25 21 20 22 20 20 19 19 17 17 18 19 20 22 20 17 15 16 20 21 20 18 17 19 21 16
31 30 29 28 29 29 26 22 22 21 22 24 22 24 23 23 22 21 20 21 19 21 20 20 18 18 18 15 17 19 20 17 17 18 18 20 16 13
34 34 34 32 34 34 29 27 28 30 31 33 31 28 28 25 25 24 24 24 23 22 19 20 18 16 17 17 17 19 19 19 17 18 19 17 15 12
27 25 29 30 32 31 34 38 37 36 40 42 37 34 31 28 27 27 27 26 25 21 21 18 16 17 16 17 15 19 19 17 16 19 19 15 14 12
29 31 29 28 31 30 32 34 40 44 41 38 36 34 32 31 31 31 27 22 23 23 21 19 18 18 15 17 16 18 18 17 19 17 14 13 12 10
26 26 30 33 32 31 34 33 33 31 33 35 36 36 36 33 31 26 22 23 26 24 22 19 19 17 17 17 16 18 18 18 18 15 13 11 10 9
28 27 28 30 31 33 32 31 34 35 38 38 47 42 36 29 24 23 25 25 26 23 16 15 18 17 17 17 18 18 17 17 15 14 12 11 9 8
28 28 28 29 30 29 29 30 31 31 31 32 31 29 26 26 21 25 23 23 24 23 22 21 18 17 17 18 18 17 17 16 13 10 10 9 8 7
28 28 27 29 28 26 26 27 28 29 29 30 28 29 25 25 31 30 30 28 27 27 25 21 19 18 18 19 19 17 15 15 12 9 8 6 5 6
26 28 27 27 27 27 29 27 31 31 31 30 29 29 28 29 29 30 29 31 32 27 25 24 23 16 13 21 20 18 15 14 11 9 7 5 4 5
24 24 27 28 25 25 28 29 29 29 29 27 25 27 27 28 28 28 26 27 28 27 15 23 23 22 18 6 14 18 16 14 12 10 9 8 6 5
22 23 24 26 28 26 25 28 28 29 27 27 28 29 30 30 28 26 25 25 25 23 21 18 18 19 23 20 9 11 16 15 13 12 11 9 8 6
21 19 24 25 24 24 26 27 28 30 29 31 32 32 32 30 28 27 26 26 26 24 24 23 18 17 17 19 16 12 15 16 14 14 12 10 11 10
26 24 19 21 25 24 23 25 28 32 31 32 33 33 30 29 28 27 29 29 27 26 25 24 23 20 18 15 17 14 11 11 16 15 13 12 12 11
25 24 24 20 20 23 22 23 27 32 31 32 34 33 31 31 30 30 29 29 30 29 27 25 24 23 21 18 16 17 16 15 11 13 13 14 13 12
23 24 21 22 21 21 21 24 27 29 29 34 33 33 33 33 32 31 31 30 29 28 26 25 24 23 22 20 19 20 19 18 14 13 13 12 12 11
21 21 22 22 22 22 21 24 26 29 29 30 31 34 33 33 32 32 31 30 29 27 25 25 24 23 23 23 21 22 20 17 15 15 14 13 13 13
18 20 21 21 20 20 20 21 25 24 30 30 31 30 31 31 32 31 32 30 29 27 26 25 25 24 23 19 18 19 20 17 16 14 14 14 14 14
20 20 20 20 18 18 18 17 19 22 21 24 27 30 30 32 30 30 31 28 27 27 27 26 20 17 19 21 19 17 17 18 17 15 14 14 15 15
20 22 22 20 21 18 18 17 16 19 21 22 24 25 27 30 30 30 31 33 30 26 23 20 21 23 24 24 21 18 18 17 16 16 16 15 12 9
21 23 21 19 19 18 17 16 17 17 19 22 25 22 25 29 30 27 28 31 28 24 22 23 24 24 23 24 22 19 17 16 15 15 14 13 14 15

GFSNE_850_spd_105.txt.gz
Wind_Speed
35 34 41 42 43 41 41 44 42 30 32 42 41 41 38 39 36 38 40 41 39 35 32 28 27 27 28 28 28 28 26 26 21 19 19 16 15 15
33 39 40 39 36 34 35 38 35 31 32 34 37 41 39 42 44 37 42 45 41 37 32 27 26 27 28 29 26 27 27 21 19 20 18 16 16 15
18 28 38 41 38 38 37 38 39 39 36 40 40 44 44 40 42 43 45 47 40 31 25 25 25 25 26 26 27 27 25 19 17 18 17 17 15 16
13 15 22 24 35 45 45 48 47 44 44 48 47 38 43 40 36 40 46 40 31 27 26 25 25 27 27 27 27 25 24 20 18 19 18 17 16 17
21 24 16 14 19 28 31 32 37 47 48 49 50 34 35 33 36 36 40 33 26 26 26 25 29 28 27 27 26 26 25 22 18 20 18 18 19 17
21 21 22 25 28 23 17 25 39 33 31 34 32 34 26 25 29 35 35 30 31 31 30 30 29 29 28 28 24 25 23 21 19 17 17 17 19 18
22 22 23 24 24 25 29 24 20 27 32 26 29 33 32 29 34 37 39 38 38 36 34 33 34 31 30 29 25 23 23 21 18 16 17 18 16 13
28 27 25 25 25 26 26 29 28 26 25 33 33 32 40 39 40 44 44 43 38 39 37 37 36 33 30 28 26 24 23 22 19 16 18 16 14 13
29 30 31 30 28 27 28 29 31 33 31 30 35 39 35 35 41 45 45 49 46 42 42 40 38 35 28 28 26 24 23 22 19 17 16 15 14 14
28 29 30 31 30 29 29 30 31 32 35 37 33 36 37 32 34 39 48 47 49 45 41 36 35 35 30 29 28 26 24 22 19 18 16 14 14 14
26 27 28 29 30 29 27 30 32 32 30 31 37 36 37 37 36 35 43 45 47 47 42 34 31 28 29 30 28 27 24 23 21 18 16 14 14 15
27 25 26 28 24 23 25 26 31 33 31 29 32 36 36 34 41 37 40 46 47 42 42 37 31 30 24 31 30 30 27 24 22 20 16 15 13 14
25 25 26 26 28 25 28 28 29 31 31 32 31 32 33 33 36 38 37 40 46 43 39 38 37 34 28 21 36 33 29 25 24 21 17 16 15 14
23 25 28 28 30 31 30 31 29 31 30 31 31 31 33 36 37 35 37 40 41 41 37 34 39 38 37 30 21 33 31 29 25 22 18 19 17 15
24 25 26 29 29 30 30 30 30 29 29 30 31 32 32 34 34 38 43 43 41 40 33 31 30 29 34 35 29 24 35 33 28 24 22 21 19 18
26 28 29 29 29 29 27 26 23 25 24 28 31 30 30 31 33 41 44 42 39 35 33 30 29 29 28 30 29 25 27 23 29 28 24 23 22 20
26 29 31 32 31 28 26 25 24 26 22 22 25 28 28 30 32 36 38 38 41 37 35 33 32 29 25 24 28 28 25 26 19 29 28 26 24 22
26 27 31 30 27 27 26 26 24 21 22 18 20 25 28 29 33 32 35 34 36 35 37 38 37 33 28 26 25 26 27 28 24 30 28 27 25 23
21 26 28 28 27 25 25 26 25 24 23 17 16 19 22 27 29 34 38 34 36 33 37 34 38 37 36 30 28 26 26 27 26 28 29 26 23 21
22 23 26 25 25 25 25 28 23 24 22 17 13 16 19 22 27 30 33 38 38 35 35 35 36 38 37 34 28 28 27 24 27 27 30 25 22 21
25 27 28 25 24 25 26 27 21 22 20 19 13 11 15 19 21 25 29 36 36 35 36 36 34 28 24 21 25 25 29 28 24 23 26 23 22 21
29 28 27 25 22 24 26 24 21 20 23 18 13 11 13 14 17 22 26 33 36 34 33 29 28 28 27 28 28 25 29 30 29 25 19 19 19 16
25 24 24 24 24 25 24 24 20 19 19 17 13 11 10 14 17 17 20 26 32 34 31 30 30 28 28 26 24 25 29 31 31 29 26 23 18 15

GFSNE_850_spd_108.txt.gz
Wind_Speed
38 35 39 39 50 54 52 47 36 28 32 30 30 31 34 35 32 34 40 43 34 37 40 41 39 39 37 36 37 36 33 31 30 28 26 23 21 20
14 18 32 31 39 38 41 41 43 44 42 41 36 32 33 32 35 41 46 43 40 44 44 47 45 43 39 36 34 36 35 32 30 28 26 22 22 20
17 19 22 18 22 43 42 38 39 41 39 39 40 39 36 37 35 37 40 43 43 44 47 51 45 41 37 32 33 35 33 30 29 26 23 23 22 20
19 20 22 15 16 19 28 37 43 36 30 32 33 39 42 44 44 40 41 43 41 42 51 48 43 40 33 35 35 32 30 29 28 24 23 21 21 20
21 21 22 22 23 21 15 17 22 36 36 48 48 44 46 47 44 42 48 42 40 45 50 43 36 31 35 34 31 31 30 29 28 24 23 22 22 21
20 20 20 21 23 25 25 27 27 19 21 29 34 38 36 31 35 34 34 34 35 40 37 35 33 34 34 35 32 30 29 28 27 25 23 23 22 22
24 24 23 22 22 23 26 27 26 26 28 19 33 33 38 34 34 34 30 29 38 37 37 35 36 37 38 35 33 30 28 25 25 24 22 20 21 21
26 26 27 26 26 25 25 24 26 27 28 31 24 30 36 35 33 34 32 33 36 41 40 40 40 40 39 37 34 31 27 26 26 25 23 23 23 20
26 27 28 26 27 28 28 28 27 25 27 30 34 33 28 36 36 38 41 39 43 44 47 46 43 42 40 37 35 31 28 27 27 25 24 24 23 20
22 24 25 26 25 23 25 28 28 28 27 28 31 32 33 29 35 38 35 38 46 50 48 51 50 47 44 41 36 35 30 28 26 26 26 24 22 18
17 17 19 21 22 27 26 25 26 26 27 30 31 33 34 33 31 37 41 42 46 53 52 50 51 51 49 43 39 37 32 30 28 26 25 25 21 17
18 17 18 18 21 24 25 26 30 29 29 32 32 34 34 34 34 36 43 45 46 42 51 49 49 50 40 43 38 35 33 31 30 27 27 24 21 20
20 20 19 22 25 24 26 29 29 29 31 33 35 36 36 35 33 36 40 46 47 50 45 51 53 49 42 34 42 37 36 36 33 29 29 26 22 21
20 21 23 26 28 28 28 29 30 31 32 30 33 36 37 39 34 33 38 41 42 48 47 45 54 57 54 32 28 40 41 40 35 32 31 26 23 22
21 23 25 26 26 29 27 28 28 25 26 26 30 34 36 37 37 35 35 39 42 51 48 45 47 53 50 47 45 40 45 43 39 35 33 27 26 24
21 25 28 26 27 26 30 25 25 26 27 29 29 33 32 33 33 33 31 39 41 45 46 44 51 49 52 46 43 36 38 40 44 39 34 29 27 25
28 30 30 25 24 28 26 26 26 26 26 26 28 31 28 29 30 29 30 35 42 43 42 41 48 44 39 45 36 32 35 39 29 42 37 34 30 27
27 28 23 21 24 25 25 27 26 27 29 30 27 28 27 25 25 26 28 32 39 40 44 45 43 35 30 31 33 33 33 34 36 36 39 35 32 30
26 24 23 23 24 27 27 28 29 30 28 25 26 28 25 21 20 23 25 30 34 37 34 39 40 40 36 25 30 30 32 34 37 32 42 35 33 31
21 24 23 24 27 29 28 28 29 30 28 24 26 27 23 17 17 21 24 26 30 34 35 37 37 41 41 37 31 31 32 33 36 32 40 35 30 27
19 21 25 27 29 28 27 26 29 29 27 23 25 25 22 16 15 18 18 20 28 33 34 36 40 41 38 32 25 27 29 27 29 30 35 34 31 29
25 26 26 26 27 27 25 26 28 26 25 23 21 23 21 16 15 16 16 19 25 27 31 33 36 37 32 28 28 28 32 31 26 23 26 32 33 27
25 26 27 27 27 27 24 24 24 23 23 21 19 21 20 16 13 13 15 15 20 23 28 30 33 35 33 28 25 25 31 32 30 27 27 27 18 20

GFSNE_850_spd_111.txt.gz
Wind_Speed
16 18 23 29 39 39 42 41 43 35 35 43 38 39 38 30 29 30 30 32 31 31 32 35 35 44 36 41 37 35 33 34 31 30 29 29 26 24
14 14 15 17 16 16 21 37 44 48 38 24 31 38 40 37 32 31 32 32 31 31 34 39 45 46 42 42 43 40 40 41 36 34 32 31 28 25
19 19 19 19 19 19 21 19 30 40 37 41 41 41 43 39 40 44 37 35 34 33 33 37 40 41 40 44 47 43 39 37 37 36 34 30 29 24
19 21 21 22 24 25 23 17 16 12 18 41 38 33 30 38 38 39 40 43 43 43 42 42 45 43 44 47 48 43 39 39 36 32 32 30 27 24
20 19 20 20 21 22 24 26 28 28 25 20 20 29 29 34 39 41 47 49 49 52 47 44 46 45 42 47 43 41 37 40 34 32 30 29 27 24
20 21 21 21 22 23 24 23 24 27 27 27 26 19 23 25 26 33 35 34 34 35 39 41 40 36 39 42 41 37 38 34 33 31 30 29 27 25
22 20 21 23 23 22 23 24 25 26 26 25 26 25 24 23 28 26 31 31 32 33 32 30 30 40 46 39 37 39 35 35 31 30 30 30 26 25
22 23 23 22 21 22 21 22 23 24 25 24 24 23 23 23 24 26 31 33 34 31 30 30 34 44 41 40 41 42 39 34 31 29 29 28 27 24
21 22 22 20 21 21 21 22 23 22 21 21 24 22 23 24 24 26 29 32 33 36 31 36 37 41 41 42 44 42 38 35 32 28 28 28 27 25
18 18 18 19 18 20 25 26 26 26 25 26 26 26 26 26 25 21 24 32 33 33 33 41 43 47 46 44 43 41 38 35 32 28 28 30 28 26
15 15 16 17 16 22 24 26 28 28 30 29 28 27 27 28 29 30 34 27 37 38 36 39 46 47 49 47 47 44 40 36 33 30 28 30 30 25
15 15 15 15 15 19 22 24 26 28 29 32 35 35 32 32 32 32 29 31 34 39 38 40 45 47 44 52 50 47 41 37 36 31 29 29 29 26
20 19 17 17 20 23 23 25 26 28 29 30 33 32 33 31 29 30 31 36 31 43 41 37 45 47 46 29 51 49 47 43 38 34 33 32 31 27
22 20 21 23 25 24 24 25 26 28 30 26 27 28 27 29 31 27 32 33 35 35 39 47 45 46 51 44 32 43 49 47 44 39 36 34 32 27
24 24 24 25 28 30 27 27 29 27 28 30 32 35 33 30 31 34 33 34 35 35 32 43 46 43 45 51 53 46 53 53 49 43 38 36 34 31
27 26 27 29 28 26 25 29 29 26 25 27 30 32 34 32 36 33 35 33 33 33 35 37 44 48 45 48 49 48 46 52 54 46 39 36 34 30
28 30 30 29 29 23 23 27 27 28 27 28 31 34 34 33 31 29 31 31 33 32 34 34 38 42 45 47 47 45 49 53 47 46 43 38 35 31
31 32 33 31 27 25 27 30 30 28 29 31 34 30 28 30 33 32 28 28 29 31 31 34 40 40 41 40 43 46 47 48 45 41 42 41 38 32
27 27 26 24 24 26 28 30 32 31 30 31 33 32 27 31 30 30 26 27 25 27 30 35 38 42 38 31 35 36 47 46 44 39 37 44 39 34
22 22 24 25 24 27 30 30 31 29 28 32 32 31 28 28 31 29 24 23 23 24 28 32 36 44 44 41 34 37 38 40 40 42 40 39 33 30
25 27 27 28 29 29 28 29 29 28 28 30 30 29 26 25 29 27 22 19 17 21 29 32 32 39 40 35 33 32 26 24 32 36 38 39 37 35
28 27 28 28 28 29 29 28 28 27 27 27 28 27 22 25 27 25 21 18 14 19 24 23 24 30 30 29 32 33 31 26 25 26 26 33 42 36
27 29 31 30 29 29 29 28 27 25 25 26 27 23 22 26 25 23 19 15 12 17 17 18 20 24 26 27 27 30 32 31 30 28 25 27 27 26

GFSNE_850_spd_114.txt.gz
Wind_Speed
15 14 13 20 19 16 18 13 20 31 30 31 38 40 38 43 44 50 51 47 40 33 32 34 37 37 35 31 29 30 36 36 33 39 31 28 25 22
14 14 16 15 14 16 15 17 21 18 20 27 34 39 39 41 45 45 42 41 44 39 32 32 32 33 32 31 28 32 37 33 33 35 38 31 27 28
16 17 17 19 19 21 22 22 20 20 22 17 13 20 29 33 32 34 38 39 40 35 31 30 32 32 33 31 28 31 35 37 37 38 43 39 31 31
20 22 21 21 22 24 24 23 24 24 25 26 21 20 20 30 35 36 41 39 36 39 39 37 35 37 33 34 35 37 41 41 39 38 45 34 32 29
16 17 18 21 21 21 20 23 23 22 23 25 28 27 26 19 23 22 31 37 36 29 33 38 41 45 43 43 43 38 40 41 42 43 40 35 33 28
16 16 16 18 21 21 21 21 23 23 23 23 23 22 24 23 19 18 18 21 26 27 35 37 38 42 44 44 44 44 42 41 44 41 38 35 31 29
16 17 18 18 17 17 18 17 20 22 23 23 24 23 19 18 18 19 19 20 22 22 25 30 31 32 32 34 36 35 36 35 43 37 36 33 29 28
18 19 20 19 16 17 15 16 18 18 18 21 21 21 21 17 17 16 19 22 26 24 24 24 27 27 27 27 26 26 33 40 31 34 34 30 30 28
16 16 17 16 17 18 21 21 20 18 16 17 20 20 23 23 24 27 23 21 21 25 28 28 26 27 27 25 30 38 34 31 36 36 32 32 31 28
15 15 17 19 21 19 23 25 23 24 22 20 23 25 26 26 27 27 28 34 33 29 24 33 29 27 26 31 36 38 37 38 38 34 34 33 30 28
14 13 16 15 19 17 21 24 25 24 23 23 24 25 25 25 24 27 29 29 30 30 32 29 32 31 30 33 37 38 38 39 37 36 36 33 30 28
19 19 17 15 15 16 21 24 26 27 25 29 28 26 24 23 20 19 21 26 29 30 24 30 30 31 34 37 41 43 43 42 41 40 38 36 31 28
24 25 21 15 17 19 21 22 25 23 25 28 26 25 25 24 24 18 19 24 27 29 26 25 29 32 35 24 28 43 46 47 44 42 39 39 35 29
23 24 25 23 23 23 23 24 23 22 26 24 24 26 25 27 25 25 29 30 28 32 28 26 30 29 36 41 41 36 39 48 48 46 44 41 35 31
24 23 23 25 25 27 29 25 23 24 26 25 26 27 27 29 32 34 32 29 33 31 32 34 33 33 36 42 41 42 36 45 49 48 47 44 41 37
29 28 28 29 27 29 29 28 23 26 26 28 29 29 30 32 35 28 25 27 30 35 31 29 33 33 37 42 47 42 40 41 47 51 50 47 44 41
29 30 31 32 31 30 27 25 25 28 29 29 29 30 33 35 35 29 27 30 31 33 34 31 30 29 32 37 44 46 45 42 45 48 52 51 48 44
28 30 32 31 28 26 24 24 26 26 29 30 31 31 32 35 35 30 30 32 34 34 31 30 30 29 30 37 43 42 43 42 46 46 47 50 51 46
27 27 27 26 24 25 25 25 28 32 31 31 30 29 33 32 32 31 30 32 34 33 32 28 28 29 31 32 37 43 43 41 45 46 46 52 54 47
21 24 26 29 28 29 31 32 33 33 32 31 29 29 30 29 30 28 28 33 32 31 29 27 28 29 34 34 35 41 39 42 45 44 48 49 46 44
21 24 26 27 28 30 31 31 31 31 29 29 30 29 27 28 29 26 31 32 28 27 26 29 27 25 28 32 32 32 36 39 40 45 51 50 46 39
24 23 26 27 30 32 31 29 30 31 32 32 29 26 26 27 27 28 30 31 28 26 25 23 22 22 27 32 33 34 33 34 37 44 49 51 51 43
26 26 27 27 27 27 27 27 27 27 26 25 23 24 26 27 26 28 28 28 25 25 20 20 18 16 21 29 33 34 38 35 36 37 37 37 37 34

GFSNE_850_spd_117.txt.gz
Wind_Speed
9 10 11 10 11 12 11 10 10 7 14 13 16 20 24 30 31 32 36 38 39 39 38 37 35 37 36 40 40 36 34 30 29 24 27 31 39 35
8 9 11 14 14 14 14 12 14 12 11 15 17 16 23 27 30 36 35 38 45 48 47 46 35 30 35 39 40 41 37 33 31 30 27 31 32 44
12 14 14 15 15 17 17 17 17 18 19 25 24 23 23 17 19 25 26 38 45 46 45 38 45 50 39 38 41 41 37 35 32 28 27 31 31 38
15 15 15 17 18 20 22 21 19 18 21 28 31 27 27 28 22 19 24 28 36 32 36 39 36 42 45 37 37 39 38 36 32 31 33 33 37 38
14 15 15 16 17 17 18 20 24 25 21 23 28 26 25 23 26 23 17 19 22 27 32 37 44 46 40 39 40 44 39 39 38 36 36 37 39 38
11 12 13 14 15 15 16 16 15 18 19 21 23 24 23 21 21 22 24 24 21 18 17 22 23 29 35 36 39 45 45 49 46 40 38 38 41 42
11 12 13 12 10 11 12 14 15 17 19 20 21 22 22 21 20 20 20 24 30 24 18 15 18 22 24 28 34 38 41 45 46 45 43 41 42 50
13 12 10 9 9 11 14 14 15 17 17 17 19 21 22 23 23 23 24 26 26 19 24 24 20 21 22 24 24 27 30 34 39 43 43 40 52 37
12 11 10 10 11 14 19 20 19 17 15 17 19 20 23 23 25 27 26 27 27 30 29 32 28 28 22 23 22 18 20 27 29 33 37 43 33 31
13 13 14 14 13 14 18 22 20 19 19 20 19 19 21 22 23 24 26 28 30 29 24 30 32 31 30 24 20 18 16 17 22 28 33 30 33 30
18 15 15 17 16 14 17 20 24 23 19 19 18 20 23 21 19 20 22 24 26 26 24 26 26 30 31 28 22 18 20 25 26 30 30 31 31 28
21 20 19 17 14 13 17 20 23 22 22 21 22 23 21 20 19 17 18 20 22 22 11 15 15 18 24 32 30 24 23 25 31 33 35 35 32 29
21 22 22 20 17 17 19 22 22 23 23 23 23 26 23 22 21 21 20 20 26 29 27 25 29 27 29 30 29 23 23 26 30 32 37 38 34 33
24 25 24 21 21 21 21 21 22 22 22 23 24 24 24 25 23 23 25 28 26 29 30 30 31 32 32 31 29 30 30 32 31 37 40 40 38 37
23 24 23 23 22 24 25 25 23 23 21 21 23 23 24 24 26 26 29 28 26 24 22 22 27 30 35 41 39 32 31 32 34 36 40 43 44 43
27 26 28 25 26 26 24 23 21 18 18 21 24 25 27 27 27 28 30 30 27 29 24 23 24 25 31 36 42 40 37 37 32 36 39 39 42 46
26 28 28 28 28 25 23 20 19 18 20 23 25 27 29 30 29 29 31 28 24 26 32 29 25 26 29 32 38 41 40 41 40 38 38 43 44 46
26 29 30 27 23 21 21 21 20 21 23 26 28 27 30 30 29 31 28 30 29 29 28 30 29 27 29 34 37 42 38 38 40 40 41 44 46 48
29 28 25 24 25 27 29 30 31 31 31 30 30 28 27 26 27 29 29 29 27 26 29 29 28 29 31 29 32 37 37 39 38 39 44 45 42 43
22 23 24 25 27 27 27 29 30 31 30 29 28 27 27 28 28 28 30 30 27 29 34 31 27 29 31 32 29 29 34 37 41 40 39 41 43 40
23 24 24 25 26 29 30 31 31 29 26 25 28 31 32 29 26 26 29 27 27 32 35 34 29 27 28 28 32 36 35 31 37 42 41 41 43 43
24 25 25 26 27 27 27 27 27 27 28 26 25 24 24 22 23 27 28 29 30 31 33 32 29 27 23 26 32 30 31 30 37 39 36 40 46 36
25 26 27 28 28 28 28 27 26 26 25 24 24 23 22 23 26 27 26 28 29 31 32 31 30 23 23 23 23 29 29 29 35 37 34 37 36 36

GFSNE_850_spd_120.txt.gz
Wind_Speed
4 5 6 6 6 7 9 10 10 3 9 14 8 9 12 19 22 25 29 30 29 31 33 34 35 44 40 41 41 44 43 43 41 40 34 30 26 27
5 6 6 6 8 8 10 10 13 12 11 13 20 21 22 23 23 25 25 32 33 35 34 33 36 40 43 43 43 39 40 43 41 38 34 31 30 30
9 8 8 9 12 13 14 14 12 13 17 24 23 24 23 26 26 25 23 23 27 28 28 29 32 40 46 48 46 40 39 42 41 39 37 34 32 32
9 10 10 12 12 13 13 14 16 18 20 24 26 26 27 25 27 28 26 22 23 22 26 31 30 40 44 41 42 42 36 40 43 43 42 33 35 35
11 10 10 10 11 11 11 13 13 14 16 21 26 27 24 23 25 25 27 25 24 22 19 23 28 30 33 34 40 42 50 42 43 44 36 36 35 37
9 10 11 11 11 11 12 13 13 15 17 19 20 21 22 21 21 26 29 25 27 21 24 19 19 18 22 27 26 30 35 42 42 40 42 42 40 38
9 10 9 8 6 7 10 13 13 14 15 17 18 19 21 23 25 25 27 28 27 25 26 24 24 19 18 19 22 28 38 38 40 41 46 48 47 45
11 10 9 7 7 8 10 13 14 17 18 18 18 21 21 21 23 24 26 27 30 23 26 29 27 29 23 19 18 21 22 29 33 37 42 45 49 50
12 12 11 10 10 11 11 15 16 15 15 15 18 18 20 20 23 27 26 26 28 28 29 36 28 30 30 30 23 20 21 26 30 34 36 37 40 42
13 14 14 14 13 13 12 15 19 19 17 17 17 18 18 22 23 23 24 26 28 25 22 29 29 30 28 31 30 25 21 21 25 27 30 31 31 35
17 16 15 16 15 13 13 16 20 21 18 17 18 18 18 21 22 23 23 24 27 27 23 18 17 26 26 27 26 24 23 21 20 14 15 22 19 31
18 17 18 19 18 16 16 18 22 22 21 22 21 20 20 22 22 20 20 21 22 24 16 25 30 27 21 26 21 16 21 20 17 17 16 15 15 32
21 23 23 21 19 17 17 22 23 23 20 22 24 23 23 25 24 22 21 21 24 27 28 27 31 32 32 34 35 23 19 14 12 17 21 25 29 35
22 23 23 21 20 21 21 21 23 24 25 26 26 25 23 25 24 24 24 24 24 26 26 26 26 26 29 31 30 33 33 28 20 19 21 24 28 30
22 23 22 23 22 21 23 23 22 24 26 26 25 23 23 25 26 26 26 27 28 28 25 22 21 23 27 31 32 32 34 31 31 20 22 28 28 34
25 25 27 25 25 26 24 20 18 18 18 18 20 20 22 25 27 27 29 28 30 31 27 21 21 20 26 28 30 33 33 30 25 24 24 27 31 34
23 26 28 27 27 23 20 18 16 16 18 17 20 24 27 28 29 30 27 26 28 30 31 27 24 22 24 26 29 31 33 33 29 31 33 30 31 35
23 26 27 24 22 22 22 23 24 26 27 28 29 29 29 29 29 28 25 25 27 28 29 27 24 23 24 26 23 30 33 34 34 29 36 36 37 34
23 22 22 22 22 22 24 25 26 25 26 26 27 28 27 26 24 26 27 26 27 27 25 23 23 24 28 30 30 25 29 30 32 36 34 37 35 37
20 22 23 24 24 25 25 25 27 27 28 28 24 21 21 24 29 31 30 27 25 26 28 27 28 29 29 31 33 33 29 28 29 32 34 36 37 37
21 22 23 24 25 26 26 26 27 28 27 25 26 26 26 24 24 25 23 21 23 27 29 29 25 26 28 28 32 36 33 28 31 32 31 35 38 37
22 23 25 26 27 27 27 27 27 27 27 27 26 24 22 22 23 24 23 24 27 27 29 30 27 28 27 27 33 32 30 29 25 30 30 39 38 34
22 25 27 28 28 28 29 29 29 29 28 27 26 25 24 24 23 24 25 27 25 27 30 32 30 28 27 29 27 27 26 25 23 25 32 36 41 36

GFSNE_850_spd_123.txt.gz
Wind_Speed
2 3 11 8 7 8 8 9 9 5 9 11 10 11 17 16 19 20 21 24 27 32 34 34 34 35 36 40 41 38 40 42 44 39 41 40 41 38
7 4 9 9 8 7 7 8 7 10 11 13 18 22 24 27 28 25 26 27 27 30 32 33 36 37 36 37 38 37 39 41 42 46 46 41 43 40
5 5 8 9 10 10 11 11 12 12 15 19 20 21 22 24 26 26 26 26 23 24 25 27 31 33 34 36 38 37 40 42 42 42 42 42 42 43
8 7 8 10 10 11 10 10 11 12 15 17 20 21 23 25 26 27 29 26 28 24 24 24 23 28 31 31 36 41 41 43 44 41 44 44 43 43
10 11 11 11 10 10 10 10 10 11 13 17 19 19 20 22 23 23 24 25 26 23 23 25 25 22 23 27 33 33 41 44 40 45 45 43 43 46
10 10 10 10 10 9 10 11 12 13 14 15 16 16 18 20 22 24 25 25 25 23 24 23 24 25 20 20 22 27 27 29 41 41 47 41 42 45
10 10 10 8 7 6 9 10 12 13 15 17 17 18 18 21 22 24 25 27 25 21 23 23 25 24 25 24 21 19 22 27 27 26 29 43 40 44
13 11 9 9 9 9 10 11 13 15 16 18 19 19 19 19 21 24 26 29 32 25 31 28 25 25 23 25 30 26 20 17 24 29 28 38 46 46
12 13 13 13 13 14 13 12 13 14 15 17 20 19 20 19 21 25 25 25 27 28 31 35 28 28 24 22 24 30 30 24 22 25 27 29 35 39
15 16 16 15 14 14 14 15 15 16 17 18 19 20 20 19 20 23 25 25 26 25 25 30 27 27 27 22 19 20 24 34 27 23 24 29 34 37
16 15 15 16 16 16 17 18 18 19 19 19 19 20 20 19 20 24 25 26 29 30 26 16 28 37 33 28 21 19 16 18 29 28 23 23 28 32
18 17 17 18 17 16 16 18 21 22 23 22 20 21 21 22 21 23 23 24 25 25 26 31 32 30 26 24 10 14 18 17 23 25 24 20 12 19
20 21 19 18 16 16 16 20 22 21 23 26 28 27 25 24 25 24 23 22 23 25 27 27 31 31 25 30 36 28 26 24 23 18 17 19 15 11
21 21 20 18 19 20 20 20 21 21 26 26 28 29 29 27 24 26 26 25 25 27 28 27 30 30 30 30 32 34 30 27 24 24 21 14 10 16
19 22 20 20 20 22 24 21 20 23 24 23 24 23 22 22 25 26 28 28 30 29 27 26 27 26 25 27 31 32 33 32 28 21 24 21 14 16
21 21 23 23 26 25 24 20 17 17 18 19 20 22 22 22 25 27 31 32 33 34 29 26 25 25 27 25 27 30 30 28 32 28 22 23 24 17
19 24 25 25 23 21 20 18 18 18 21 21 23 25 27 29 32 32 31 32 30 31 31 29 26 25 22 24 26 28 31 30 29 30 27 27 29 27
20 23 22 21 20 21 21 21 21 21 20 21 23 25 27 28 30 30 29 28 28 31 32 30 26 22 21 22 24 26 25 28 27 27 26 27 30 28
21 20 21 20 20 21 22 23 24 23 23 24 24 25 26 26 25 26 26 27 32 32 29 27 23 22 25 26 27 21 20 21 25 27 27 27 29 28
18 20 19 20 21 23 24 25 26 26 26 26 26 25 23 23 25 28 30 30 29 29 28 26 26 26 25 27 31 34 25 25 27 31 30 26 27 27
19 20 20 22 23 24 25 26 26 27 27 27 27 27 25 25 26 27 27 26 24 27 31 32 31 23 23 25 31 36 32 25 25 28 31 30 28 27
19 20 21 24 25 26 26 27 28 27 27 26 26 26 24 23 25 27 27 27 27 28 31 32 27 25 26 27 30 33 32 28 26 26 29 29 26 26
19 22 24 26 26 27 27 28 28 29 28 28 27 25 24 25 24 25 26 26 27 28 29 29 28 25 26 29 30 30 29 29 26 27 28 29 30 34

GFSNE_850_spd_126.txt.gz
Wind_Speed
10 8 8 8 9 8 6 3 7 9 5 4 8 12 13 14 15 15 15 19 21 22 25 29 30 32 33 35 36 37 39 38 36 38 40 39 38 38
13 12 11 11 11 10 9 8 8 12 9 7 10 12 17 20 22 24 22 21 26 22 25 27 30 31 32 32 33 36 39 40 42 42 39 39 40 40
12 12 12 12 12 11 11 8 10 12 13 17 19 21 23 23 24 24 25 24 22 22 24 25 27 30 26 28 32 33 37 37 38 39 40 39 40 43
10 11 11 11 11 10 9 9 10 11 12 15 17 18 18 20 20 22 22 23 25 25 24 25 28 27 27 23 23 27 30 33 36 39 40 43 43 43
13 13 13 12 11 10 10 10 11 11 12 14 17 17 18 20 20 19 19 20 18 20 21 22 25 26 27 27 24 23 27 33 34 39 43 41 45 43
11 11 11 11 10 11 12 11 11 12 13 13 14 15 16 18 20 22 21 21 19 18 16 16 20 21 22 25 27 24 24 27 31 33 35 43 41 43
11 10 10 9 9 10 11 11 12 13 13 14 14 16 17 19 21 21 23 25 20 18 19 19 19 18 18 21 23 26 29 25 26 31 34 32 37 41
13 12 11 11 11 11 12 12 12 14 15 15 16 16 17 18 19 19 22 25 27 20 30 24 24 22 20 18 19 22 26 32 27 26 29 32 33 33
17 17 16 15 14 12 11 11 13 14 15 17 19 18 19 17 19 20 22 23 23 26 29 31 26 24 22 19 19 19 17 25 27 30 26 23 23 32
17 17 18 17 17 16 16 18 17 16 16 17 18 20 20 18 17 18 22 24 26 26 26 29 28 31 27 21 21 16 17 17 21 29 34 29 24 24
18 17 18 19 19 16 18 20 20 20 17 17 18 20 21 20 17 22 21 24 28 29 28 23 32 36 33 25 20 16 16 18 23 24 34 30 29 27
17 17 18 19 18 16 17 19 23 23 21 20 19 20 21 19 18 20 21 23 23 25 26 28 30 30 26 23 14 29 24 23 22 22 25 24 24 30
19 20 20 19 17 17 17 20 23 21 23 25 27 27 27 26 25 24 23 23 22 24 24 24 24 30 28 33 37 31 28 25 23 21 19 23 19 25
20 21 21 19 19 19 19 20 20 20 24 26 27 27 25 23 21 20 20 23 24 26 27 26 29 27 29 33 32 35 31 28 26 22 20 17 23 16
18 20 19 20 19 23 25 23 21 22 21 21 22 23 23 22 22 21 22 24 27 30 30 28 29 27 26 28 34 36 33 31 26 16 19 17 17 21
20 20 23 23 25 24 22 19 18 18 19 19 21 23 25 25 26 26 29 31 34 37 34 30 25 23 26 28 28 31 32 32 30 26 25 22 18 19
18 22 25 25 23 22 20 19 18 18 19 20 21 23 25 26 27 27 28 29 31 34 32 27 24 24 24 26 27 29 31 30 26 28 24 24 20 18
19 22 24 23 22 21 21 21 20 20 20 21 21 21 23 24 26 27 26 26 26 27 30 30 29 25 23 26 24 24 21 24 24 24 22 23 25 19
20 20 21 21 21 21 22 23 25 24 24 24 24 24 24 25 25 25 25 25 27 29 31 28 25 20 25 31 29 20 22 21 22 25 25 24 26 24
17 18 19 20 21 22 24 25 26 26 26 26 26 25 24 24 26 27 27 27 28 29 28 25 23 23 24 30 34 32 23 26 26 27 27 25 26 25
17 17 18 19 22 24 25 25 26 26 26 26 27 27 27 26 27 27 27 27 27 27 31 31 28 24 24 28 34 35 29 24 25 28 29 24 26 26
17 18 18 20 23 24 25 26 27 26 27 27 27 27 26 26 27 26 26 27 27 28 30 29 26 24 25 25 32 34 31 29 24 25 26 24 27 22
17 18 19 21 24 24 25 26 27 29 28 28 28 28 27 28 27 27 26 26 27 28 28 29 27 25 25 24 26 30 31 30 27 27 29 24 25 28

GFSNE_850_spd_129.txt.gz
Wind_Speed
12 12 12 11 11 10 9 8 6 4 5 5 4 10 17 22 16 9 5 8 14 15 17 19 21 24 23 24 27 31 32 33 35 36 35 36 41 42
14 14 14 13 12 10 9 9 8 7 6 10 13 17 22 23 26 21 17 15 15 17 20 22 25 27 25 25 26 27 28 31 33 35 37 37 37 39
12 12 13 13 13 12 11 10 8 7 8 12 13 18 23 27 25 23 23 20 18 19 19 23 27 27 26 26 27 27 28 30 30 33 35 38 40 42
13 13 13 12 12 12 11 11 10 9 8 10 12 13 14 14 16 17 17 17 18 19 19 20 25 26 28 28 27 27 28 28 29 29 33 36 38 38
12 12 13 13 12 12 12 11 11 11 11 12 13 14 16 16 16 15 16 14 14 15 16 16 17 20 24 27 27 28 30 29 28 29 31 30 34 37
11 12 13 13 12 12 13 13 13 13 14 14 13 14 15 17 19 20 19 16 15 14 12 13 15 16 17 20 23 25 27 29 29 29 27 29 32 35
12 12 11 11 12 13 13 13 13 13 14 14 15 16 17 19 19 20 21 21 17 15 16 16 16 15 15 16 17 19 23 26 29 30 27 27 29 33
14 14 14 14 12 11 12 12 11 10 13 16 17 15 16 16 17 19 19 20 19 16 27 20 20 18 16 15 17 17 20 24 28 29 31 31 30 29
15 16 16 14 14 14 13 14 15 15 15 16 17 16 20 19 19 20 20 21 22 24 26 30 25 23 20 19 18 17 18 20 21 22 25 30 32 29
17 16 16 16 16 16 16 17 18 17 16 17 19 20 19 19 18 21 22 23 27 26 24 26 28 28 25 20 19 17 16 16 21 22 23 26 29 34
16 16 15 17 17 15 16 18 19 18 17 16 17 19 21 20 17 20 22 24 22 24 28 23 26 32 31 24 16 8 18 24 22 21 22 24 25 31
17 16 13 15 16 14 15 18 22 22 21 19 18 20 21 21 21 21 24 26 22 21 16 23 22 26 20 22 14 27 23 22 21 21 21 21 23 26
14 16 16 15 15 14 15 18 20 21 22 25 26 25 24 23 20 19 20 21 22 23 21 22 26 27 18 25 37 33 27 25 23 22 20 20 20 23
16 17 19 15 16 16 15 19 21 21 22 25 26 24 21 20 19 19 18 17 17 22 24 23 29 30 31 34 33 37 31 28 27 24 22 17 15 19
16 17 17 17 16 18 20 19 18 19 20 21 22 22 21 22 22 21 21 23 24 26 27 29 31 32 30 31 32 36 36 32 28 20 23 25 24 20
16 17 18 18 19 21 20 18 17 17 18 19 21 23 24 24 24 24 25 25 26 27 26 26 26 24 24 26 27 33 32 28 30 28 26 25 23 19
15 20 22 21 21 19 17 16 17 17 18 19 21 22 22 23 24 24 25 26 27 28 26 22 21 21 23 25 28 30 31 32 30 27 23 26 23 18
14 20 21 20 19 18 18 17 17 18 19 21 21 22 23 24 25 25 25 25 26 26 26 24 23 25 24 25 22 23 22 24 27 25 23 22 26 21
15 18 19 18 19 18 18 20 21 21 21 22 23 23 23 24 24 25 25 26 28 28 27 25 24 22 22 27 24 21 23 21 22 23 23 26 28 25
16 17 17 17 18 19 20 21 22 22 23 24 24 24 24 25 25 26 27 27 27 27 27 25 24 22 25 28 28 29 26 29 26 27 26 25 27 25
15 15 15 17 18 20 21 22 23 23 24 25 26 27 27 26 26 26 26 27 26 27 30 30 27 23 24 25 29 34 30 24 24 25 27 26 28 26
15 16 16 17 18 20 22 22 24 24 25 27 26 25 25 24 27 26 27 28 28 28 29 28 25 24 24 25 30 32 30 23 19 23 24 24 26 19
14 16 16 17 19 20 22 22 23 25 26 26 25 25 26 28 28 28 27 28 29 29 29 28 25 24 24 23 25 27 28 27 26 27 27 23 23 25